                ,  0.290,  0.386,  0.483,  0.580,  0.676,  0.773,  0.869,  0.966,  1.063,  1.159,  1.256,  1.352,  1.449,  1.545,  1.642,  1.739,  1.835,  1.932,  2.028,  2.125,  2.222,  2.318,  2.415,  2.511,  2.608,  2.705,  2.801,  2.898,  2.994,  3.091,  3.188,  3.284,  3.381,  3.477,  3.574,  3.671,  3.767,  3.864,  3.960,  4.057,  4.153,  4.250,  4.347,  4.443,  4.540,  4.636,  4.733,  4.830,  4.926,  5.023,  5.119,  5.216,  5.313,  5.409,  5.506,  5.602,  5.699,  5.796
2001/08/17 00:00,  999.0,  999.0,    0.5,   -0.3,   -1.2,   -0.5,   -0.2,   -0.0,   -0.8,   -0.0,  999.0,    0.0,   -0.5,    0.3,   -0.1,    0.6,    0.1,   -0.4,   -1.5,   -2.6,   -2.0,    0.0,    0.2,  999.0,    0.6,  999.0,  999.0,  999.0,  999.0,  999.0,  999.0,  999.0,  999.0,  999.0,  999.0,  999.0,  999.0,  999.0,  999.0,  999.0,  999.0,  999.0,  999.0,  999.0,  999.0,  999.0,   -1.9,  999.0,  999.0,  999.0,  999.0,  999.0,  999.0,  999.0,  999.0,  999.0,  999.0,  999.0
2001/08/17 00:10,  999.0,  999.0,   -1.5,   -1.5,   -0.3,   -0.7,   -1.1,    0.4,  999.0,    0.1,    0.2,   -0.1,   -0.5,   -0.3,   -0.2,    0.1,   -0.2,   -0.6,   -1.3,   -2.1,   -2.0,   -1.0,    0.0,  999.0,  999.0,  999.0,  999.0,  999.0,  999.0,  999.0,  999.0,  999.0,  999.0,  999.0,  999.0,  999.0,  999.0,  999.0,  999.0,  999.0,  999.0,  999.0,  999.0,  999.0,  999.0,  999.0,  999.0,  999.0,  999.0,  999.0,  999.0,  999.0,  999.0,  999.0,  999.0,  999.0,  999.0,  999.0
2001/08/17 00:20,  999.0,  999.0,   -0.8,   -0.3,   -0.9,   -0.6,   -0.9,   -1.0,   -0.3,    0.2,    0.6,    0.2,   -0.2,   -0.2,    0.0,   -0.1,    0.4,    0.1,   -0.9,   -2.4,   -2.3,   -2.0,    0.3,    0.6,  999.0,  999.0,  999.0,  999.0,  999.0,  999.0,  999.0,  999.0,  999.0,  999.0,  999.0,  999.0,  999.0,  999.0,  999.0,  999.0,  999.0,  999.0,  999.0,  999.0,  999.0,  999.0,  999.0,  999.0,  999.0,  999.0,  999.0,  999.0,  999.0,  999.0,  999.0,  999.0,  999.0,  999.0
2001/08/17 00:30,  999.0,   -3.5,   -4.2,   -1.9,   -1.1,   -1.0,   -0.7,   -0.6,   -0.3,  999.0,   -0.1,   -0.9,   -1.1,   -0.7,    0.1,    0.7,    0.8,    0.2,   -0.9,   -2.0,   -2.3,   -1.2,   -0.6,    0.7,    2.4,  999.0,  999.0,  999.0,  999.0,  999.0,  999.0,  999.0,  999.0,  999.0,  999.0,  999.0,  999.0,  999.0,  999.0,  999.0,  999.0,  999.0,  999.0,  999.0,  999.0,  999.0,  999.0,  999.0,  999.0,  999.0,  999.0,  999.0,  999.0,  999.0,  999.0,  999.0,  999.0,  999.0
2001/08/17 00:40,  999.0,  999.0,   -2.7,   -1.4,   -0.7,   -1.2,   -0.9,   -0.4,   -0.4,    0.3,    0.1,   -0.7,   -0.5,    0.5,    1.3,    2.0,    1.7,    0.8,   -1.0,   -2.8,  999.0,   -1.5,   -0.7,    1.0,    1.5,  999.0,  999.0,  999.0,  999.0,  999.0,  999.0,  999.0,  999.0,  999.0,  999.0,  999.0,  999.0,  999.0,  999.0,  999.0,  999.0,  999.0,  999.0,  999.0,  999.0,  999.0,  999.0,  999.0,  999.0,  999.0,  999.0,  999.0,  999.0,  999.0,  999.0,  999.0,  999.0,  999.0
2001/08/17 00:50,  999.0,   -1.6,   -2.2,   -2.0,    0.6,   -0.2,   -1.9,   -0.1,   -0.2,   -0.3,    0.1,   -0.5,  999.0,    0.8,    1.5,    1.6,    1.6,    0.2,   -0.7,   -3.5,   -3.6,   -2.3,   -1.8,   -0.4,  999.0,  999.0,  999.0,  999.0,  999.0,  999.0,  999.0,  999.0,  999.0,  999.0,  999.0,  999.0,  999.0,  999.0,  999.0,  999.0,  999.0,  999.0,  999.0,  999.0,  999.0,  999.0,  999.0,  999.0,  999.0,  999.0,  999.0,  999.0,  999.0,  999.0,  999.0,  999.0,  999.0,  999.0
2001/08/17 01:00,  999.0,  999.0,  999.0,   -3.3,   -2.5,   -1.7,   -0.6,    0.8,   -0.8,    0.4,    0.4,   -0.4,   -0.2,    0.5,    0.1,    1.1,    0.9,   -0.6,   -1.6,   -2.6,   -2.6,   -1.7,   -1.0,    0.3,  999.0,  999.0,  999.0,  999.0,  999.0,  999.0,  999.0,  999.0,  999.0,  999.0,  999.0,  999.0,  999.0,  999.0,  999.0,  999.0,  999.0,  999.0,  999.0,  999.0,  999.0,  999.0,  999.0,  999.0,  999.0,  999.0,  999.0,  999.0,  999.0,  999.0,  999.0,  999.0,  999.0,  999.0
2001/08/17 01:10,  999.0,  999.0,   -2.6,   -1.9,   -1.2,   -0.4,   -0.1,   -0.4,   -0.5,   -0.1,    0.2,   -0.0,    0.5,    1.3,  999.0,    1.7,    0.7,   -1.4,   -2.9,   -3.2,  999.0,   -2.0,   -1.3,    0.1,  999.0,  999.0,    0.6,  999.0,  999.0,  999.0,  999.0,  999.0,  999.0,  999.0,  999.0,  999.0,  999.0,  999.0,    1.0,  999.0,  999.0,  999.0,  999.0,  999.0,  999.0,  999.0,  999.0,  999.0,  999.0,  999.0,  999.0,  999.0,    1.4,  999.0,  999.0,    1.7,  999.0,  999.0
2001/08/17 01:20,  999.0,    0.7,   -1.5,   -1.5,   -1.4,   -1.1,   -0.5,   -0.3,   -0.4,   -0.6,    0.2,    0.7,    1.0,    1.3,    1.3,    1.1,    0.4,   -1.7,   -2.9,   -2.9,   -2.9,   -1.9,   -0.7,    0.2,  999.0,  999.0,  999.0,  999.0,  999.0,  999.0,  999.0,  999.0,  999.0,  999.0,  999.0,  999.0,  999.0,  999.0,  999.0,  999.0,  999.0,  999.0,  999.0,  999.0,  999.0,  999.0,  999.0,  999.0,  999.0,  999.0,  999.0,  999.0,  999.0,  999.0,  999.0,  999.0,  999.0,  999.0
2001/08/17 01:30,  999.0,   -1.2,   -1.7,   -1.6,   -1.0,   -0.9,   -0.7,   -0.7,   -0.9,   -0.5,   -0.2,    0.3,    1.4,    1.4,    1.7,    2.1,    0.7,   -1.3,   -2.4,   -3.1,   -2.6,   -1.7,   -1.0,    0.0,   -0.1,    3.1,    1.3,  999.0,  999.0,  999.0,  999.0,  999.0,  999.0,  999.0,  999.0,  999.0,  999.0,  999.0,  999.0,  999.0,  999.0,  999.0,  999.0,  999.0,  999.0,  999.0,  999.0,  999.0,  999.0,  999.0,  999.0,  999.0,  999.0,  999.0,  999.0,  999.0,  999.0,  999.0
2001/08/17 01:40,  999.0,   -1.9,   -0.6,   -1.4,   -2.7,   -1.4,   -1.5,   -0.3,   -0.4,   -0.3,    0.2,    0.8,    1.3,    1.2,    1.4,    1.6,    0.4,   -1.7,   -2.4,   -2.8,   -2.8,   -1.6,   -1.7,   -0.5,    1.6,  999.0,  999.0,  999.0,  999.0,  999.0,  999.0,  999.0,  999.0,  999.0,  999.0,  999.0,  999.0,  999.0,  999.0,  999.0,  999.0,  999.0,  999.0,  999.0,  999.0,  999.0,  999.0,  999.0,  999.0,  999.0,  999.0,  999.0,  999.0,  999.0,  999.0,  999.0,  999.0,  999.0
2001/08/17 01:50,  999.0,  999.0,   -1.1,   -1.8,   -2.1,   -2.0,   -1.1,   -0.6,   -0.3,   -0.1,    0.1,   -0.2,    2.6,    1.2,    1.5,    1.9,    1.0,   -1.1,   -2.2,   -3.0,   -2.7,   -2.8,   -1.8,   -0.8,   -0.6,  999.0,  999.0,  999.0,  999.0,  999.0,  999.0,  999.0,  999.0,  999.0,  999.0,  999.0,  999.0,  999.0,  999.0,  999.0,  999.0,  999.0,  999.0,  999.0,  999.0,  999.0,  999.0,  999.0,  999.0,  999.0,  999.0,  999.0,  999.0,  999.0,  999.0,  999.0,  999.0,  999.0
2001/08/17 02:00,  999.0,   -1.7,   -2.2,   -1.6,   -1.4,   -1.6,   -1.5,   -1.5,   -1.3,   -1.0,   -0.2,    0.8,    0.9,    1.7,    2.3,    2.7,    0.5,   -1.7,   -2.2,   -1.9,   -2.3,  999.0,   -1.3,   -0.1,  999.0,  999.0,    1.8,    1.9,    2.1,  999.0,  999.0,  999.0,  999.0,  999.0,  999.0,  999.0,  999.0,  999.0,  999.0,  999.0,  999.0,  999.0,  999.0,  999.0,  999.0,  999.0,  999.0,  999.0,  999.0,  999.0,  999.0,  999.0,  999.0,  999.0,  999.0,  999.0,  999.0,  999.0
2001/08/17 02:10,  999.0,   -1.0,   -1.7,   -1.0,   -1.0,   -1.7,   -1.9,   -1.4,   -1.2,   -0.9,    0.1,    1.1,    1.9,    1.8,    2.7,    2.2,    1.1,   -1.9,   -2.1,   -2.4,  999.0,   -1.2,   -0.2,    1.0,  999.0,  999.0,  999.0,  999.0,  999.0,  999.0,  999.0,  999.0,  999.0,  999.0,  999.0,  999.0,  999.0,  999.0,  999.0,  999.0,  999.0,  999.0,  999.0,  999.0,  999.0,  999.0,  999.0,  999.0,  999.0,  999.0,  999.0,  999.0,  999.0,  999.0,  999.0,  999.0,  999.0,  999.0
2001/08/17 02:20,  999.0,   -1.2,   -1.4,   -1.0,   -1.5,   -1.7,   -1.4,   -0.9,   -1.2,   -0.8,    0.2,    1.5,    1.6,    2.1,    2.7,    2.4,    0.2,   -1.3,   -2.1,   -1.6,   -3.3,  999.0,  999.0,    0.3,  999.0,  999.0,  999.0,  999.0,  999.0,  999.0,  999.0,  999.0,  999.0,  999.0,  999.0,  999.0,  999.0,  999.0,  999.0,  999.0,  999.0,  999.0,  999.0,  999.0,  999.0,  999.0,  999.0,  999.0,  999.0,  999.0,  999.0,  999.0,  999.0,  999.0,  999.0,  999.0,  999.0,  999.0
2001/08/17 02:30,  999.0,   -1.6,   -1.9,   -1.1,   -1.7,   -1.9,   -1.1,   -0.6,    0.7,   -0.1,   -0.6,    0.5,    1.2,    2.6,    3.2,    2.7,    0.5,   -1.8,   -2.4,  999.0,  999.0,  999.0,  999.0,   -0.2,    0.9,  999.0,  999.0,  999.0,  999.0,  999.0,  999.0,  999.0,  999.0,  999.0,  999.0,  999.0,  999.0,  999.0,  999.0,  999.0,  999.0,  999.0,  999.0,  999.0,  999.0,  999.0,  999.0,  999.0,  999.0,  999.0,  999.0,  999.0,  999.0,  999.0,  999.0,  999.0,  999.0,  999.0
2001/08/17 02:40,  999.0,   -0.7,   -1.2,   -0.1,   -1.2,   -1.7,   -0.5,   -0.9,   -0.7,   -0.6,    0.9,    1.5,    2.2,    2.7,  999.0,    1.3,   -1.1,  999.0,  999.0,  999.0,  999.0,  999.0,  999.0,   -0.1,    0.5,    2.1,  999.0,  999.0,    2.9,    3.9,  999.0,  999.0,  999.0,  999.0,  999.0,  999.0,  999.0,  999.0,  999.0,  999.0,  999.0,  999.0,  999.0,  999.0,  -21.8,  -21.4,  -21.7,  -21.0,  999.0,  999.0,  -22.0,  999.0,  999.0,  -22.0,  999.0,  999.0,  999.0,  999.0
2001/08/17 02:50,  999.0,   -1.2,   -1.2,    0.1,   -0.1,   -0.5,    0.0,    0.6,  999.0,    0.7,    1.2,    1.8,    2.4,    3.2,    3.1,    2.3,   -0.6,   -0.5,   -0.1,  999.0,  999.0,  999.0,  999.0,  999.0,    3.6,  999.0,  999.0,  999.0,    7.4,  999.0,  999.0,  999.0,  999.0,  999.0,  999.0,  999.0,  999.0,  999.0,  999.0,  999.0,  999.0,  999.0,  999.0,  999.0,  999.0,  999.0,  999.0,  -10.5,  -10.3,  999.0,  999.0,  -11.0,  999.0,  999.0,  999.0,  999.0,  999.0,  999.0
2001/08/17 03:00,  999.0,   -0.8,   -0.1,   -0.5,   -1.2,   -0.6,   -0.0,    0.4,   -0.4,    0.5,    1.0,    1.6,    2.2,    2.9,    2.8,    1.5,   -0.6,   -1.2,   -1.3,  999.0,  999.0,  999.0,  999.0,  999.0,   -0.3,  999.0,  999.0,  999.0,  999.0,  999.0,  999.0,  999.0,  999.0,  999.0,  999.0,  999.0,  999.0,  999.0,  999.0,  999.0,  999.0,  999.0,  999.0,  999.0,  999.0,  999.0,  999.0,  999.0,  999.0,  999.0,  999.0,  999.0,  999.0,  999.0,  999.0,  999.0,  999.0,  999.0
2001/08/17 03:10,  999.0,   -1.4,   -1.4,   -2.0,   -1.0,   -0.0,    0.1,    0.1,    1.3,    0.9,    0.8,    1.4,    1.7,    2.0,    1.6,    0.3,   -1.8,   -1.8,   -1.6,  999.0,  999.0,  999.0,  999.0,  999.0,    0.4,  999.0,  999.0,  999.0,  999.0,  999.0,  999.0,  999.0,  999.0,  999.0,  999.0,  999.0,  999.0,  999.0,  999.0,  999.0,  999.0,  999.0,  999.0,   -5.8,  999.0,  999.0,   -3.9,  999.0,   -1.5,  999.0,   -0.7,  999.0,  999.0,  999.0,   -0.3,  999.0,   -0.5,   -0.4
2001/08/17 03:20,  999.0,   -1.2,   -1.1,   -1.2,   -1.5,   -1.5,   -0.4,    1.4,    0.7,    0.4,    0.8,    1.4,    1.8,    1.9,    1.5,   -0.0,   -1.7,   -1.8,   -1.9,  999.0,   -2.2,  999.0,  999.0,  999.0,  999.0,  999.0,  999.0,  999.0,  999.0,  999.0,  999.0,  999.0,  999.0,  999.0,  999.0,  999.0,  999.0,  999.0,  999.0,  999.0,  999.0,  999.0,  999.0,   -2.5,   -0.5,   -2.2,  999.0,  999.0,  999.0,   -0.4,  999.0,  999.0,  999.0,  999.0,   -1.3,   -0.6,   -0.4,  999.0
2001/08/17 03:30,  999.0,   -1.1,   -2.7,   -1.7,   -1.9,   -1.1,   -0.4,   -1.1,  999.0,    1.4,    1.5,    1.9,    2.2,    2.4,    1.2,    0.0,   -1.8,   -2.4,  999.0,   -1.6,  999.0,  999.0,  999.0,  999.0,  999.0,  999.0,  999.0,  999.0,  999.0,  999.0,  999.0,  999.0,  999.0,  999.0,  999.0,  999.0,  999.0,  999.0,  999.0,  999.0,  999.0,  999.0,  999.0,  999.0,  999.0,  999.0,  999.0,  999.0,   -0.7,  999.0,  999.0,   -0.4,  999.0,  999.0,  999.0,  999.0,  999.0,   -0.1
2001/08/17 03:40,  999.0,   -0.8,   -0.4,   -0.8,   -1.1,   -0.6,  999.0,    0.3,  999.0,    1.0,    0.9,    0.7,   -0.2,   -0.6,   -1.0,   -1.7,   -1.9,   -2.3,   -1.6,   -1.2,   -1.3,  999.0,  999.0,  999.0,  999.0,  999.0,  999.0,  999.0,  999.0,  999.0,  999.0,  999.0,  999.0,  999.0,  999.0,  999.0,  999.0,   -7.7,   -6.8,   -5.4,   -3.8,  999.0,   -3.0,   -2.9,  999.0,  999.0,   -1.5,  999.0,  999.0,  999.0,  999.0,   -0.3,  999.0,   -0.8,   -0.5,   -1.0,   -0.6,   -0.7
2001/08/17 03:50,  999.0,   -1.3,   -0.4,   -0.5,    0.1,    0.1,    0.9,  999.0,  999.0,    0.7,    1.3,    0.8,   -0.7,   -1.7,   -2.2,   -2.6,   -3.1,   -3.4,   -2.5,   -2.6,  999.0,  999.0,  999.0,  999.0,  999.0,  999.0,  999.0,  999.0,  999.0,  999.0,  999.0,  999.0,  999.0,  999.0,  999.0,  999.0,  999.0,   -3.2,  999.0,  999.0,  999.0,   -2.2,   -1.2,  999.0,  999.0,   -1.0,  999.0,  999.0,  999.0,  999.0,  999.0,  999.0,  999.0,  999.0,   -0.6,   -0.2,  999.0,  999.0
2001/08/17 04:00,  999.0,   -0.8,   -1.4,   -2.2,   -2.0,   -0.0,    0.5,    2.8,    0.5,   -0.4,   -0.4,   -1.5,   -1.1,   -1.1,   -1.5,   -2.7,   -3.0,   -3.0,   -2.7,   -2.5,   -1.7,  999.0,  999.0,  999.0,  999.0,  999.0,  999.0,  999.0,  999.0,  999.0,  999.0,  999.0,  999.0,  999.0,  999.0,  999.0,  999.0,  999.0,  999.0,  999.0,  999.0,  999.0,  999.0,   -0.2,  999.0,  999.0,  999.0,  999.0,  999.0,  999.0,  999.0,   -1.5,  999.0,  999.0,   -0.8,  999.0,   -0.9,  999.0
2001/08/17 04:10,  999.0,  999.0,   -1.5,   -1.0,   -0.8,    0.2,   -1.3,    0.3,    0.1,   -0.4,   -0.6,   -1.5,   -2.1,   -1.9,   -1.7,   -2.4,   -3.0,   -2.9,   -2.4,   -1.8,   -1.1,  999.0,  999.0,  999.0,  999.0,  999.0,  999.0,  999.0,  999.0,  999.0,  999.0,  999.0,  999.0,  999.0,  999.0,  999.0,  999.0,  999.0,  999.0,  999.0,  999.0,   -1.2,  999.0,   -0.1,   -1.2,  999.0,  999.0,   -0.6,   -0.9,  999.0,  999.0,  999.0,  999.0,   -0.8,   -0.8,  999.0,  999.0,   -1.0
2001/08/17 04:20,  999.0,   -0.4,    0.2,    0.6,   -0.4,   -0.2,   -0.1,  999.0,   -0.8,   -0.3,   -2.2,   -2.2,   -1.5,   -1.7,   -2.7,   -3.4,   -3.0,   -3.0,   -2.8,  999.0,  999.0,  999.0,  999.0,  999.0,  999.0,  999.0,  999.0,  999.0,  999.0,  999.0,  999.0,  999.0,  999.0,  999.0,  999.0,  999.0,  999.0,  999.0,  999.0,  999.0,  999.0,  999.0,  999.0,  999.0,  999.0,  999.0,  999.0,  999.0,  999.0,  999.0,  999.0,  999.0,  999.0,  999.0,  999.0,  999.0,  999.0,  999.0
2001/08/17 04:30,  999.0,   -1.3,    0.6,   -0.6,   -0.4,    0.1,   -0.5,   -0.6,   -0.8,   -1.1,   -0.9,   -1.5,   -1.6,   -2.6,   -3.3,   -3.1,   -2.7,   -2.7,   -2.4,   -1.4,   -0.4,  999.0,  999.0,  999.0,  999.0,  999.0,  999.0,  999.0,  999.0,  999.0,  999.0,  999.0,  999.0,  999.0,  999.0,  999.0,  999.0,  999.0,  999.0,  999.0,   -2.2,  999.0,   -1.4,   -1.2,   -1.0,  999.0,  999.0,   -0.7,   -0.8,  999.0,   -1.3,  999.0,   -1.0,  999.0,  999.0,  999.0,   -0.7,   -0.4
2001/08/17 04:40,  999.0,   -1.2,   -0.9,   -0.5,   -0.5,   -0.3,   -0.3,   -0.5,   -0.5,   -0.9,   -1.2,   -1.7,   -2.2,   -2.3,   -2.2,   -2.0,   -2.6,   -2.4,   -1.9,   -0.9,   -0.2,    0.3,  999.0,  999.0,  999.0,  999.0,  999.0,  999.0,  999.0,  999.0,  999.0,  999.0,  999.0,  999.0,  999.0,  999.0,  999.0,  999.0,  999.0,  999.0,  999.0,  999.0,  999.0,  999.0,   -2.6,   -0.9,   -0.5,  999.0,  999.0,  999.0,  999.0,  999.0,  999.0,   -1.3,   -0.6,   -0.9,  999.0,  999.0
2001/08/17 04:50,  999.0,   -1.0,   -0.6,   -0.7,   -0.6,    0.6,   -0.4,   -1.7,   -1.2,   -1.4,   -1.7,   -2.0,   -2.3,   -1.7,   -1.6,   -2.8,   -3.1,   -2.4,   -1.6,   -1.2,   -0.1,  999.0,  999.0,  999.0,  999.0,  999.0,  999.0,  999.0,  999.0,  999.0,  999.0,  999.0,  999.0,  999.0,  999.0,  999.0,  999.0,  999.0,  999.0,  999.0,  999.0,  999.0,    1.2,  999.0,  999.0,  999.0,  999.0,  999.0,   -0.3,   -1.0,   -0.3,   -0.7,   -0.8,   -0.8,   -0.8,  999.0,   -0.6,   -0.9
2001/08/17 05:00,  999.0,   -1.4,   -1.3,   -0.8,   -2.6,   -1.0,   -0.8,   -0.1,   -0.4,   -0.9,   -1.8,   -2.5,   -2.6,   -1.9,   -2.0,   -2.6,   -2.7,   -1.4,    0.1,    0.0,  999.0,  999.0,  999.0,  999.0,  999.0,  999.0,  999.0,  999.0,  999.0,  999.0,  999.0,  999.0,  999.0,  999.0,  999.0,  999.0,  999.0,  999.0,  999.0,   -1.3,  999.0,   -0.9,  999.0,   -0.9,   -0.5,   -0.9,   -1.3,   -1.0,   -0.4,  999.0,   -2.0,  999.0,   -1.8,  999.0,  999.0,   -3.4,  999.0,   -4.0
2001/08/17 05:10,  999.0,   -1.2,   -0.9,   -0.7,   -0.5,   -0.1,   -0.4,    0.1,   -1.6,   -2.1,   -2.5,   -2.6,   -2.2,   -1.7,   -2.3,   -3.1,   -3.6,   -1.4,  999.0,  999.0,  999.0,  999.0,  999.0,  999.0,  999.0,  999.0,  999.0,  999.0,  999.0,  999.0,  999.0,  999.0,  999.0,  999.0,  999.0,  999.0,  999.0,  999.0,   -0.9,   -0.7,  999.0,   -0.3,   -0.7,   -0.5,   -0.7,  999.0,   -1.1,  999.0,   -0.7,   -0.7,   -0.7,  999.0,  999.0,   -0.8,   -0.9,   -0.8,   -1.2,   -1.2
2001/08/17 05:20,  999.0,   -2.2,   -1.9,   -0.6,   -0.3,   -0.0,  999.0,   -0.8,   -0.9,   -1.5,   -2.2,   -2.5,   -2.3,   -1.9,   -2.3,   -3.6,   -3.8,  999.0,  999.0,    0.1,  999.0,  999.0,  999.0,  999.0,  999.0,  999.0,  999.0,  999.0,  999.0,  999.0,  999.0,  999.0,  999.0,  999.0,  999.0,  999.0,  999.0,  999.0,   -1.1,   -0.8,  999.0,  999.0,  999.0,  999.0,   -0.6,  999.0,  999.0,   -0.7,  999.0,   -0.5,   -0.6,  999.0,   -0.7,  999.0,   -0.9,  999.0,   -0.6,   -1.0
2001/08/17 05:30,  999.0,   -2.5,   -2.1,   -1.5,   -0.6,   -0.5,   -0.5,   -0.6,   -1.6,   -1.3,   -1.9,   -2.0,   -2.1,   -1.9,   -2.2,   -2.5,   -2.3,   -1.5,   -1.8,   -1.4,    3.1,    4.1,  999.0,  999.0,  999.0,  999.0,  999.0,  999.0,  999.0,  999.0,  999.0,  999.0,  999.0,  999.0,  999.0,  999.0,  999.0,  999.0,  999.0,  999.0,  999.0,  999.0,  999.0,  999.0,  999.0,   -0.5,   -0.0,   -0.5,   -0.4,  999.0,   -0.9,   -1.2,   -0.3,   -0.5,  999.0,   -0.9,  999.0,  999.0
2001/08/17 05:40,  999.0,   -2.8,   -3.4,   -3.3,   -3.0,   -2.4,   -1.5,   -1.0,   -1.1,   -1.6,   -1.8,   -1.5,   -1.5,   -1.5,   -2.1,   -2.1,  999.0,   -1.9,   -1.8,  999.0,  999.0,  999.0,  999.0,  999.0,  999.0,  999.0,  999.0,  999.0,  999.0,  999.0,  999.0,  999.0,  999.0,  999.0,  999.0,  999.0,  999.0,  999.0,  999.0,  999.0,  999.0,  999.0,  999.0,  999.0,  999.0,  999.0,  999.0,  999.0,   -1.1,   -0.3,    0.1,  999.0,  999.0,  999.0,   -0.5,  999.0,  999.0,    0.0
2001/08/17 05:50,  999.0,   -1.4,   -1.4,   -1.7,   -1.6,   -1.5,   -1.2,   -0.6,   -0.3,   -0.6,   -1.0,   -1.1,   -1.1,   -1.4,   -1.9,   -2.1,   -1.8,   -1.3,  999.0,   -0.0,  999.0,  999.0,  999.0,  999.0,  999.0,  999.0,  999.0,  999.0,  999.0,  999.0,  999.0,  999.0,  999.0,  999.0,  999.0,  999.0,  999.0,  999.0,  999.0,  999.0,  999.0,  999.0,   -3.2,   -3.8,   -2.0,   -2.8,   -2.1,  999.0,   -2.8,   -1.9,   -0.1,  999.0,  999.0,   -0.6,  999.0,   -0.1,  999.0,  999.0
2001/08/17 06:00,  999.0,   -0.6,  999.0,   -1.1,   -1.3,   -1.7,   -2.0,   -1.4,   -0.6,   -0.6,   -1.1,   -1.3,   -1.1,   -1.4,   -1.6,   -1.7,   -1.3,   -1.1,   -0.6,    0.2,  999.0,  999.0,  999.0,  999.0,  999.0,  999.0,  999.0,  999.0,  999.0,  999.0,  999.0,  999.0,  999.0,  999.0,  999.0,  999.0,  999.0,  999.0,  999.0,  999.0,  999.0,  999.0,  999.0,  999.0,  999.0,  999.0,  999.0,  999.0,  999.0,  999.0,  999.0,   -0.9,  999.0,  999.0,   -1.3,  999.0,  999.0,  999.0
2001/08/17 06:10,  999.0,   -2.4,   -3.2,   -0.5,  999.0,   -1.2,   -1.1,   -0.5,   -0.2,   -0.4,   -1.1,   -0.8,   -1.3,   -1.6,   -2.1,   -2.6,   -2.9,   -2.6,   -2.5,  999.0,  999.0,  999.0,  999.0,  999.0,  999.0,  999.0,  999.0,  999.0,  999.0,  999.0,  999.0,  999.0,  999.0,  999.0,  999.0,  999.0,  999.0,  999.0,   -4.4,   -2.5,  999.0,   -3.2,   -2.4,   -0.8,   -1.3,   -0.6,   -0.3,  999.0,   -0.8,   -0.9,  999.0,   -0.5,   -0.8,  999.0,  999.0,   -0.9,   -0.7,  999.0
2001/08/17 06:20,  999.0,   -0.4,   -2.1,   -1.9,   -1.1,   -0.1,   -0.4,    0.3,   -0.3,   -0.7,   -1.2,   -1.3,   -1.5,   -1.9,   -2.4,   -2.4,   -2.7,   -2.5,   -2.7,  999.0,  999.0,  999.0,  999.0,  999.0,  999.0,  999.0,  999.0,  999.0,  999.0,  999.0,  999.0,  999.0,  999.0,  999.0,  999.0,  999.0,  999.0,  999.0,   -3.9,  999.0,  999.0,   -3.1,  999.0,  999.0,   -4.7,   -2.4,   -1.4,  999.0,   -1.5,   -1.3,   -1.6,   -1.0,   -0.7,   -1.1,   -0.4,  999.0,  999.0,   -0.4
2001/08/17 06:30,  999.0,   -1.9,   -2.2,   -1.8,   -0.9,   -0.7,   -0.9,    0.2,   -0.7,   -0.8,   -0.9,   -1.3,   -2.0,   -2.3,   -2.9,   -3.3,   -3.8,   -2.6,   -2.3,  999.0,  999.0,  999.0,  999.0,  999.0,  999.0,  999.0,  999.0,  999.0,  999.0,  999.0,  999.0,  999.0,  999.0,  999.0,  999.0,  -10.1,   -9.5,   -6.3,   -4.6,   -5.2,   -3.8,  999.0,   -1.9,   -3.4,  999.0,  999.0,   -3.0,   -1.4,  999.0,   -0.6,   -1.1,   -1.2,   -1.4,   -1.0,   -0.2,   -1.0,   -0.9,   -0.5
2001/08/17 06:40,  999.0,   -1.3,   -3.1,   -1.0,   -0.7,   -0.7,   -0.6,   -0.4,   -0.6,   -0.3,   -0.9,   -1.5,   -1.9,   -2.3,   -2.5,   -2.9,   -3.3,   -3.8,  999.0,  999.0,  999.0,  999.0,  999.0,  999.0,  999.0,  999.0,  999.0,  999.0,  999.0,  999.0,  999.0,  999.0,  999.0,  999.0,  999.0,  999.0,   -1.6,   -1.4,   -1.0,  999.0,   -1.0,   -2.0,   -0.9,  999.0,  999.0,   -0.6,   -0.6,  999.0,  999.0,  999.0,  999.0,   -1.2,  999.0,   -0.5,  999.0,  999.0,   -0.3,  999.0
2001/08/17 06:50,  999.0,   -1.1,   -2.7,   -2.0,   -1.0,   -0.1,    0.3,    0.3,  999.0,   -0.7,   -0.9,   -1.3,   -1.7,   -2.7,   -3.2,   -3.6,   -3.0,   -3.2,  999.0,  999.0,  999.0,  999.0,  999.0,  999.0,  999.0,  999.0,  999.0,  999.0,  999.0,  999.0,  999.0,  999.0,  999.0,  999.0,  999.0,  999.0,  999.0,  999.0,  999.0,   -0.4,   -0.5,  999.0,   -1.0,  999.0,  999.0,   -1.1,   -1.0,   -0.3,   -0.4,  999.0,  999.0,  999.0,  999.0,  999.0,   -0.2,  999.0,  999.0,   -0.0
2001/08/17 07:00,  999.0,   -0.7,   -1.8,   -1.1,   -1.0,   -0.7,   -0.4,    0.3,    0.3,   -0.6,   -0.7,   -1.2,   -1.5,   -2.1,   -3.0,   -3.7,   -3.8,   -3.3,   -2.0,   -1.0,  999.0,  999.0,  999.0,  999.0,  999.0,  999.0,  999.0,  999.0,  999.0,  999.0,  999.0,  999.0,  999.0,  999.0,  999.0,   -4.9,   -3.3,   -3.0,   -2.4,   -1.6,   -1.3,  999.0,  999.0,  999.0,   -0.3,  999.0,   -0.6,   -0.7,   -1.0,   -0.6,   -0.5,   -0.3,   -0.7,  999.0,   -0.8,   -0.7,   -0.7,   -0.7
2001/08/17 07:10,  999.0,   -0.7,   -1.3,   -0.6,   -0.5,   -0.1,    0.4,    0.5,    0.4,   -0.5,   -0.4,   -1.3,   -2.4,   -4.2,   -4.4,   -4.5,   -4.9,   -3.9,   -2.4,    0.9,    1.4,  999.0,  999.0,  999.0,  999.0,  999.0,  999.0,  999.0,  999.0,  999.0,  999.0,  999.0,  999.0,  999.0,  999.0,   -4.0,  999.0,   -2.1,   -1.9,   -0.7,  999.0,   -0.5,  999.0,   -0.6,  999.0,   -0.9,   -0.6,   -0.7,   -0.6,   -0.7,   -0.9,   -0.1,  999.0,  999.0,  999.0,   -0.7,   -1.0,  999.0
2001/08/17 07:20,  999.0,   -0.8,   -1.1,   -0.6,   -0.3,    0.1,   -0.0,   -0.2,   -0.5,   -0.3,   -1.3,   -1.8,   -3.3,   -4.1,   -4.7,   -5.3,   -5.2,   -3.7,   -3.2,  999.0,   -0.2,  999.0,  999.0,  999.0,  999.0,  999.0,  999.0,  999.0,  999.0,  999.0,  999.0,  999.0,  999.0,  999.0,  999.0,  999.0,   -5.0,  999.0,  999.0,   -0.7,   -2.2,  999.0,   -0.1,   -0.7,   -0.7,   -0.7,   -0.5,   -0.7,  999.0,   -0.8,   -0.4,   -0.3,   -1.0,  999.0,   -0.5,   -1.2,   -1.5,  999.0
2001/08/17 07:30,  999.0,   -0.7,   -2.3,   -1.8,   -0.2,    0.1,    0.0,    0.1,    0.4,   -0.6,   -1.9,   -2.6,   -3.7,   -4.1,   -4.9,   -5.2,   -5.6,  999.0,   -2.6,  999.0,  999.0,  999.0,  999.0,  999.0,  999.0,  999.0,  999.0,  999.0,  999.0,  999.0,  999.0,  999.0,  999.0,  999.0,  999.0,  999.0,  999.0,  999.0,  999.0,  999.0,  999.0,  999.0,  999.0,  999.0,  999.0,  999.0,  999.0,  999.0,  999.0,  999.0,  999.0,  999.0,  999.0,  999.0,  999.0,  999.0,  999.0,  999.0
2001/08/17 07:40,  999.0,   -0.7,   -2.7,   -1.8,   -1.1,    0.4,    0.1,   -0.3,   -1.5,   -1.7,   -2.5,   -3.8,   -4.6,   -4.9,   -5.2,   -5.4,   -5.9,  999.0,  999.0,  999.0,  999.0,  999.0,  999.0,  999.0,  999.0,  999.0,  999.0,  999.0,  999.0,  999.0,  999.0,  999.0,  999.0,  -30.9,  -32.6,  -33.9,  999.0,  999.0,  -39.4,  999.0,  -40.7,  -40.4,  -39.3,  -41.0,  -41.2,  -41.2,  -41.4,  -41.8,  999.0,  -42.0,  -41.7,  999.0,  999.0,  999.0,  999.0,  999.0,  999.0,  999.0
2001/08/17 07:50,  999.0,   -0.4,   -2.5,   -2.1,   -2.2,    0.2,   -0.8,   -1.1,   -2.4,   -2.7,   -3.6,   -4.7,   -5.4,   -5.6,   -5.9,   -6.6,   -4.1,   -3.3,   -3.0,  999.0,  999.0,  999.0,  999.0,  999.0,  999.0,  999.0,  999.0,  999.0,  999.0,  999.0,  -34.5,  -37.2,  -38.7,  -36.4,  -36.8,  -38.4,  999.0,  999.0,  -40.1,  -40.9,  -41.8,  -41.2,  -41.4,  -41.3,  999.0,  -42.3,  -41.6,  -41.8,  999.0,  999.0,  -41.7,  -42.1,  -42.0,  -41.9,  -42.3,  999.0,  999.0,  -41.8
2001/08/17 08:00,  999.0,   -0.8,   -2.5,   -2.2,   -1.3,   -0.3,    0.5,   -1.2,   -2.5,   -2.8,   -3.1,   -4.3,   -4.4,   -5.1,   -5.8,   -5.5,   -5.0,  999.0,  999.0,  999.0,  999.0,  999.0,  999.0,  999.0,  999.0,  999.0,  999.0,  999.0,  999.0,  999.0,  999.0,  999.0,  999.0,  -41.4,  -41.7,  -42.0,  -42.2,  999.0,  -41.5,  -41.2,  999.0,  -41.3,  -41.5,  -41.8,  999.0,  -41.9,  -41.7,  999.0,  999.0,  -41.7,  999.0,  999.0,  -42.2,  999.0,  -41.9,  -41.4,  999.0,  999.0
2001/08/17 08:10,  999.0,   -0.6,   -2.1,   -2.7,   -0.7,    0.9,   -0.1,   -1.8,   -2.6,   -3.3,   -3.8,   -4.4,   -4.3,   -5.1,   -5.8,   -5.3,   -4.7,   -2.8,  999.0,  999.0,  999.0,  999.0,  999.0,  999.0,  999.0,  999.0,  999.0,  999.0,  -34.9,  -41.8,  -38.8,  -39.8,  999.0,  -42.0,  -41.6,  -42.2,  -41.6,  999.0,  -41.8,  -41.7,  -42.1,  999.0,  999.0,  -41.9,  -42.6,  -42.0,  999.0,  -42.0,  999.0,  -41.9,  -42.0,  -41.7,  -41.1,  -42.0,  -42.3,  -41.5,  -41.6,  999.0
2001/08/17 08:20,  999.0,   -0.5,   -3.0,   -2.9,   -1.5,   -1.2,   -0.4,   -2.0,   -3.6,   -3.9,   -4.4,   -4.3,   -4.7,   -5.2,   -5.9,   -6.3,   -5.2,  999.0,  999.0,  999.0,  999.0,  999.0,  999.0,  999.0,  999.0,  999.0,  999.0,  999.0,  999.0,  -37.7,  -39.4,  999.0,  999.0,  -41.6,  -41.5,  999.0,  -41.9,  999.0,  -42.1,  -41.5,  -42.3,  -41.8,  -42.2,  -41.4,  -41.6,  -42.0,  -41.8,  -42.2,  -41.5,  -42.2,  -41.6,  -41.5,  -41.8,  999.0,  -41.7,  -41.9,  -41.7,  -41.5
2001/08/17 08:30,  999.0,   -0.5,   -2.1,   -2.8,   -2.5,   -0.1,   -0.7,   -2.1,   -3.6,   -3.6,   -4.1,   -4.6,   -5.3,   -5.9,   -6.6,   -7.1,   -5.5,  999.0,  999.0,  999.0,  999.0,  999.0,  999.0,  999.0,  999.0,  999.0,  999.0,  999.0,  999.0,  999.0,  -38.6,  999.0,  -39.4,  999.0,  999.0,  -40.1,  -40.5,  -41.0,  -41.8,  999.0,  -41.9,  -41.9,  -41.7,  999.0,  999.0,  -42.3,  -42.0,  -41.9,  -42.1,  -41.9,  -41.9,  -41.9,  999.0,  -42.0,  -41.7,  -41.8,  -42.0,  -42.1
2001/08/17 08:40,  999.0,   -0.6,   -2.2,   -2.7,   -2.3,   -1.7,   -1.4,   -3.9,   -4.6,   -4.2,   -4.3,   -4.5,   -5.1,   -5.2,   -5.7,   -6.2,   -5.7,   -5.3,  999.0,  999.0,  999.0,  999.0,  999.0,  999.0,  999.0,  999.0,  999.0,  999.0,  999.0,  -40.0,  999.0,  -41.0,  -41.9,  -41.6,  999.0,  -42.1,  999.0,  999.0,  -42.0,  -41.8,  -41.7,  999.0,  -42.1,  -41.8,  -42.3,  -41.9,  -41.9,  999.0,  -41.9,  999.0,  -42.0,  -42.0,  -42.0,  -42.2,  -41.9,  999.0,  -41.9,  999.0
2001/08/17 08:50,  999.0,   -1.3,   -2.0,   -3.2,   -2.0,   -1.2,   -2.1,   -3.9,   -4.4,   -4.6,   -4.7,   -5.1,   -5.8,   -5.7,   -6.4,   -8.6,  999.0,  999.0,  999.0,  999.0,  999.0,  999.0,  999.0,  999.0,  999.0,  999.0,  999.0,  999.0,  -36.8,  -37.5,  -39.5,  -40.2,  999.0,  -40.5,  -41.8,  -42.2,  -41.7,  -41.7,  -42.1,  999.0,  999.0,  -41.9,  -41.6,  -42.0,  -41.7,  -41.9,  999.0,  -41.7,  -41.5,  -41.7,  -42.0,  -41.7,  -42.2,  999.0,  -41.9,  -42.2,  -41.6,  -42.0
2001/08/17 09:00,  999.0,    0.1,   -0.9,   -2.4,   -2.7,   -1.7,   -3.2,   -4.0,   -4.7,   -4.9,   -4.6,   -4.9,   -5.6,   -7.3,  999.0,  999.0,  999.0,  999.0,  999.0,  999.0,  999.0,  999.0,  999.0,  999.0,  999.0,  999.0,  999.0,  -35.1,  -36.8,  -37.6,  -37.7,  -38.3,  -39.7,  -40.7,  -39.6,  -41.2,  999.0,  -41.5,  -41.6,  -41.5,  -42.1,  -41.4,  -41.4,  999.0,  -42.0,  -41.8,  -41.8,  999.0,  -41.6,  -41.7,  999.0,  999.0,  -41.8,  -41.8,  -42.4,  -41.9,  -41.5,  999.0
2001/08/17 09:10,  999.0,    0.0,   -2.5,   -2.8,   -2.2,   -2.2,   -3.3,   -4.2,   -5.2,   -5.5,   -5.4,   -5.2,  999.0,  999.0,  999.0,  999.0,  999.0,  999.0,  999.0,  999.0,  999.0,  999.0,  999.0,  -32.9,  -33.1,  999.0,  -37.8,  -38.9,  -40.5,  999.0,  -40.3,  -41.2,  999.0,  999.0,  999.0,  -41.5,  999.0,  -41.4,  999.0,  999.0,  -41.5,  -42.0,  999.0,  -41.9,  -41.9,  -41.7,  -41.3,  -41.8,  999.0,  -41.6,  -41.7,  -42.0,  999.0,  -42.1,  -41.6,  999.0,  999.0,  -42.0
2001/08/17 09:20,  999.0,   -1.5,   -2.1,   -2.6,   -2.6,   -2.9,   -4.0,   -4.4,   -5.2,   -5.4,   -5.0,   -5.3,   -6.3,   -6.7,  999.0,  999.0,  999.0,  999.0,  999.0,  999.0,  999.0,  999.0,  999.0,  999.0,  999.0,  999.0,  999.0,  999.0,  999.0,  999.0,  999.0,  -38.1,  -39.1,  999.0,  -39.4,  -41.5,  -40.9,  999.0,  999.0,  -41.4,  999.0,  999.0,  -41.4,  -41.6,  999.0,  -41.7,  999.0,  999.0,  -41.7,  -41.6,  999.0,  999.0,  999.0,  999.0,  999.0,  999.0,  999.0,  999.0
2001/08/17 09:30,  999.0,   -2.6,   -2.3,   -1.7,   -2.5,   -3.5,   -4.2,   -4.8,   -5.9,   -4.7,   -4.4,   -4.8,   -5.5,   -5.3,  999.0,  999.0,  999.0,  999.0,  999.0,  999.0,  999.0,  999.0,  999.0,  999.0,  999.0,  999.0,  999.0,  999.0,  999.0,  999.0,  999.0,  999.0,  -37.1,  -38.3,  -38.2,  999.0,  -41.1,  -41.5,  -42.0,  -41.7,  -41.6,  -42.0,  -41.7,  -41.6,  999.0,  -42.0,  -41.8,  999.0,  -41.4,  -41.9,  999.0,  999.0,  999.0,  -41.7,  -41.3,  -41.5,  -41.6,  -42.0
2001/08/17 09:40,  999.0,   -1.6,   -2.3,   -3.1,   -3.5,   -3.9,   -4.3,   -5.1,   -6.2,   -5.5,   -4.5,   -4.7,   -4.9,   -5.0,   -5.5,  999.0,  999.0,  999.0,  999.0,  999.0,  999.0,  999.0,  999.0,  999.0,  999.0,  999.0,  999.0,  999.0,  999.0,  999.0,  999.0,  -40.2,  -40.0,  -42.0,  999.0,  999.0,  -41.2,  999.0,  999.0,  -41.7,  -42.7,  999.0,  -42.1,  -41.8,  999.0,  -41.9,  999.0,  999.0,  -41.8,  999.0,  -41.8,  -42.1,  999.0,  999.0,  -42.1,  -41.1,  -41.2,  -41.9
2001/08/17 09:50,  999.0,   -2.5,   -3.1,   -3.4,   -3.6,   -4.0,   -4.7,   -4.9,   -6.3,   -6.1,  999.0,  999.0,   -5.5,   -5.6,   -6.1,  999.0,  999.0,  999.0,  999.0,  999.0,  999.0,  999.0,  999.0,  999.0,  999.0,  999.0,  999.0,  999.0,  -37.5,  999.0,  -38.8,  -41.2,  -41.3,  -42.0,  -40.8,  -42.0,  -41.8,  999.0,  -41.9,  999.0,  999.0,  -41.9,  -41.6,  -41.9,  -42.6,  999.0,  -42.0,  -41.6,  999.0,  -41.6,  -41.7,  -42.1,  -41.7,  -41.8,  -41.9,  -42.0,  -41.7,  -41.7
2001/08/17 10:00,  999.0,   -0.6,   -1.1,   -1.9,   -2.7,   -2.7,   -4.6,   -5.8,   -5.7,   -5.6,  999.0,   -4.6,   -5.1,   -4.6,   -4.1,   -3.4,   -1.8,  999.0,  999.0,  999.0,  999.0,  999.0,  -11.4,  -17.3,  -23.8,  -35.3,  999.0,  -37.8,  999.0,  999.0,  999.0,  -40.6,  -42.0,  -41.5,  -41.7,  -41.7,  -42.0,  -41.8,  -41.8,  -41.6,  -37.6,  999.0,  -42.2,  -41.6,  -41.9,  -41.9,  999.0,  -41.8,  999.0,  -41.0,  -41.6,  -42.2,  -42.2,  -41.7,  999.0,  999.0,  -42.3,  -41.8
2001/08/17 10:10,  999.0,   -1.1,   -0.7,   -1.6,   -2.5,   -2.9,   -4.5,   -4.0,   -4.2,   -4.8,  999.0,   -3.7,   -3.5,   -4.2,   -3.3,   -3.3,   -3.2,   -4.3,   -5.5,   -7.1,   -8.5,  -10.7,  -12.8,  999.0,  999.0,  999.0,  999.0,  999.0,  999.0,  999.0,  999.0,  999.0,  999.0,  -41.4,  -41.6,  999.0,  999.0,  999.0,  -41.3,  -35.5,  -41.6,  -41.6,  -42.2,  -41.5,  -42.3,  -42.5,  999.0,  999.0,  -41.7,  999.0,  -41.9,  -41.5,  999.0,  -42.3,  999.0,  -41.8,  -41.5,  -41.6
2001/08/17 10:20,  999.0,   -1.2,   -1.7,   -2.2,   -3.5,   -5.4,   -4.8,   -5.6,   -4.2,   -4.1,   -4.4,   -4.2,   -3.7,   -3.2,   -3.3,   -3.7,  999.0,  999.0,  999.0,  999.0,  999.0,  -11.9,  -14.0,  999.0,  999.0,  999.0,  999.0,  999.0,  999.0,  999.0,  999.0,  999.0,  -42.2,  999.0,  999.0,  999.0,  999.0,  -41.1,  -41.5,  999.0,  -41.7,  -42.0,  -41.5,  -42.0,  -42.1,  -41.5,  -42.2,  999.0,  -41.9,  -42.2,  -41.5,  -41.3,  -41.9,  -41.5,  -41.1,  -41.5,  -42.1,  -41.9
2001/08/17 10:30,  999.0,   -1.7,   -2.8,   -2.0,   -2.5,   -2.6,   -3.0,   -2.8,   -3.2,   -4.0,   -3.5,   -2.9,   -2.6,   -2.3,   -1.6,   -1.7,   -3.5,   -5.0,  999.0,  999.0,   -9.1,  -11.0,  -12.8,  999.0,  999.0,  999.0,  999.0,  999.0,  999.0,  999.0,  999.0,  999.0,  999.0,  999.0,  999.0,  -41.7,  999.0,  -41.4,  -41.8,  -41.6,  -41.7,  -42.0,  -41.8,  999.0,  -42.0,  -41.8,  -42.0,  -41.7,  -42.5,  -41.9,  -42.0,  999.0,  -41.5,  -41.2,  -41.9,  999.0,  -41.7,  999.0
2001/08/17 10:40,  999.0,   -1.5,   -2.7,   -3.2,   -2.5,   -3.3,   -4.8,   -5.7,   -5.9,   -6.4,   -6.0,   -4.2,   -3.0,   -2.2,   -2.6,   -3.4,   -5.0,  999.0,  999.0,   -8.6,  -10.0,  -12.1,  -14.3,  999.0,  999.0,  999.0,  999.0,  999.0,  999.0,  999.0,  999.0,  999.0,  999.0,  999.0,  999.0,  999.0,  999.0,  999.0,  999.0,  -41.7,  -41.8,  -41.7,  999.0,  -42.0,  -42.2,  -41.6,  -42.1,  -41.9,  999.0,  -42.0,  -41.9,  999.0,  -41.9,  -41.3,  -42.0,  -41.7,  -41.8,  -41.8
2001/08/17 10:50,  999.0,   -1.6,   -1.4,   -2.1,   -0.5,   -2.4,   -2.9,   -3.8,   -4.4,   -4.8,   -5.2,   -4.4,   -3.2,   -1.1,   -0.8,   -0.8,   -1.0,   -1.3,   -2.6,   -3.7,   -4.6,   -6.2,  999.0,  999.0,  999.0,  999.0,  999.0,  999.0,  999.0,  999.0,  999.0,  999.0,  999.0,  -38.6,  999.0,  999.0,  999.0,  999.0,  -42.0,  -41.8,  999.0,  -41.9,  999.0,  999.0,  999.0,  -42.3,  999.0,  -42.3,  999.0,  -42.1,  -42.2,  -41.5,  999.0,  -41.5,  999.0,  -41.7,  999.0,  999.0
2001/08/17 11:00,  999.0,   -2.0,   -2.3,   -0.9,   -1.8,   -2.5,   -3.1,   -3.5,   -4.0,   -4.2,   -3.5,   -3.1,   -2.2,   -0.8,   -0.3,   -0.4,   -0.8,   -0.9,   -1.7,   -2.9,   -3.8,   -5.1,   -4.2,  999.0,  999.0,  999.0,  999.0,  999.0,  999.0,  999.0,  999.0,  999.0,  999.0,  999.0,  -42.2,  999.0,  -41.9,  -42.4,  -42.1,  -41.8,  -42.1,  999.0,  999.0,  999.0,  -41.3,  -41.6,  -41.7,  999.0,  -41.7,  999.0,  -41.7,  -42.5,  -41.5,  -42.0,  -42.1,  -42.3,  -41.8,  -41.6
2001/08/17 11:10,  999.0,   -0.7,   -0.4,   -1.0,   -1.4,   -3.0,   -2.1,   -2.9,   -2.8,   -4.4,   -2.7,   -2.9,   -2.1,   -0.7,    0.3,   -0.2,   -0.3,   -0.4,   -0.2,    1.5,    1.8,   -0.8,   -2.6,  999.0,  999.0,  999.0,  999.0,  999.0,  999.0,  999.0,  999.0,  999.0,   -2.5,   -6.2,  999.0,   -4.7,  999.0,  999.0,  999.0,  999.0,  999.0,   -1.6,  999.0,   -0.6,   -0.5,  999.0,   -0.2,   -0.3,   -0.4,  999.0,   -0.6,   -0.6,   -0.6,   -0.4,  999.0,   -1.4,  999.0,   -0.8
2001/08/17 11:20,  999.0,   -2.3,   -1.7,   -3.1,   -3.5,   -3.9,   -4.2,   -3.9,   -3.8,   -3.6,   -3.1,   -2.7,   -1.9,   -0.8,   -0.6,   -1.7,   -1.8,  999.0,   -0.4,   -1.1,   -1.7,   -1.1,  999.0,  999.0,  999.0,  999.0,  999.0,  999.0,  999.0,  999.0,  999.0,  999.0,  999.0,  999.0,  999.0,  999.0,  999.0,  999.0,    9.5,   -0.3,   -0.9,   -0.7,   -0.9,   -0.4,   -0.5,   -0.6,   -0.8,   -1.2,  999.0,  999.0,   -1.4,   -0.9,   -0.7,   -0.6,  999.0,   -0.5,   -1.1,   -0.6
2001/08/17 11:30,  999.0,   -1.4,   -2.5,   -3.8,   -2.6,   -2.0,   -2.1,   -1.7,   -3.3,   -3.7,   -3.8,   -2.9,   -1.4,   -0.8,   -1.0,   -1.4,   -1.3,   -1.6,   -0.8,   -0.3,   -1.3,   -0.8,   -0.7,    1.6,  999.0,  999.0,  999.0,  999.0,  999.0,  999.0,  999.0,  999.0,  999.0,  999.0,  999.0,  999.0,   -0.3,   -0.8,   -0.9,  999.0,   -0.6,  999.0,   -6.1,   -0.5,   -0.9,   -1.1,   -1.0,    4.8,   -1.1,  999.0,  999.0,   -1.1,   -0.7,   -0.8,   -0.5,  999.0,   -1.1,   -1.2
2001/08/17 11:40,  999.0,   -0.1,   -0.3,    0.6,   -2.4,   -2.7,   -1.8,   -2.8,   -3.3,   -2.7,   -2.7,   -2.5,   -1.2,   -0.7,   -0.9,   -1.0,    0.2,   -0.5,   -0.6,   -0.3,   -1.2,   -0.5,   -0.1,  999.0,    0.8,    0.8,    0.2,  999.0,  999.0,  999.0,  999.0,  999.0,  999.0,  999.0,  999.0,  999.0,  999.0,   -0.5,   -0.8,   -0.5,   -0.8,  999.0,   -1.0,   -1.0,   -0.9,   -0.9,   -0.5,  999.0,   -3.1,   -0.7,   -3.0,   -1.9,   -0.8,  999.0,   -1.0,   -0.6,  999.0,   -0.6
2001/08/17 11:50,  999.0,   -1.2,   -0.8,   -1.6,   -1.2,   -1.6,   -2.1,   -2.6,   -2.7,   -2.4,   -1.5,   -1.0,   -0.9,   -0.2,    0.1,   -0.0,    0.6,   -0.3,   -1.0,   -0.1,   -0.5,    0.8,  999.0,  999.0,    6.0,    5.5,  999.0,  999.0,  999.0,  999.0,  999.0,  999.0,  999.0,  999.0,  999.0,  999.0,  999.0,  999.0,   -0.8,   -1.6,   -0.8,   -0.7,   -0.6,   -0.8,   -0.8,   -0.7,   -1.1,  999.0,   -8.0,  999.0,   -2.6,   -2.9,   -0.4,   -1.1,   -2.0,   -0.5,  999.0,   -0.6
2001/08/17 12:00,  999.0,   -2.5,   -2.5,   -2.4,   -2.3,   -2.4,   -2.9,   -3.7,   -3.7,   -2.4,   -1.1,   -0.6,   -0.1,    0.4,    0.9,    0.5,    0.3,   -0.9,   -0.9,    0.3,    0.6,    0.9,  999.0,  999.0,  999.0,   -1.0,  999.0,  999.0,  999.0,  999.0,  999.0,  999.0,  999.0,   -8.5,  999.0,   -6.0,   -3.0,  999.0,  999.0,  999.0,  999.0,  999.0,  999.0,  999.0,  999.0,   -0.3,   -0.8,   -1.0,   -0.6,   -0.8,   -0.8,  999.0,   -0.7,   -0.5,  999.0,   -0.7,   -0.8,   -0.3
2001/08/17 12:10,  999.0,   -2.3,   -2.0,   -0.4,    0.2,   -1.3,   -1.2,   -0.6,   -0.9,   -1.5,   -2.3,   -2.1,   -2.7,   -1.5,   -0.2,    0.2,   -0.7,   -2.0,   -1.5,   -0.5,    0.4,    0.5,   -1.4,  999.0,   -1.2,   -5.1,  999.0,  999.0,  999.0,  999.0,  999.0,  999.0,  999.0,  999.0,  999.0,  999.0,  999.0,  999.0,  999.0,  999.0,  999.0,  999.0,  999.0,  999.0,  999.0,  999.0,  999.0,  999.0,  999.0,  999.0,  999.0,  999.0,  999.0,  999.0,  999.0,  999.0,  999.0,  999.0
2001/08/17 12:20,  999.0,   -1.8,   -1.8,   -1.6,   -1.2,   -1.0,   -1.3,   -1.6,   -1.2,   -0.8,   -0.6,   -1.3,   -0.7,    1.0,    1.0,    0.3,   -0.6,   -0.9,   -0.2,    0.2,    1.4,    0.9,  999.0,  999.0,  999.0,   -6.0,  999.0,  -11.9,  999.0,  999.0,  999.0,  999.0,  999.0,  999.0,  999.0,  999.0,  999.0,  999.0,  999.0,  999.0,  999.0,  999.0,  999.0,  999.0,  999.0,  999.0,  999.0,  999.0,  999.0,  999.0,  999.0,  999.0,  999.0,  999.0,  999.0,  999.0,  999.0,  999.0
2001/08/17 12:30,  999.0,    0.7,    0.4,    1.1,   -2.0,   -1.7,   -2.4,   -2.4,   -1.6,   -1.1,   -0.8,   -0.5,   -0.8,   -0.0,    0.8,    0.5,   -0.5,   -1.7,   -2.0,   -1.0,    0.0,   -0.8,  999.0,  999.0,  999.0,  999.0,  999.0,  999.0,  999.0,  999.0,  999.0,  999.0,  999.0,  999.0,  999.0,  999.0,  999.0,  999.0,  999.0,  999.0,  999.0,  999.0,  999.0,  -41.8,  -39.0,  999.0,  999.0,  -42.1,  999.0,  999.0,  -41.7,  -41.8,  -41.7,  -30.1,  -41.6,  -41.9,  -42.4,  -42.1
2001/08/17 12:40,  999.0,   -3.3,   -3.9,   -2.5,   -0.5,    1.2,    1.9,    1.2,    0.5,    0.8,    1.0,    1.1,    1.3,    1.7,    1.2,    0.7,   -0.8,   -1.9,   -1.8,   -0.7,    1.3,    1.3,   -4.0,  999.0,  999.0,  999.0,  999.0,  999.0,  999.0,  999.0,  999.0,  999.0,  999.0,  999.0,  999.0,  999.0,  999.0,  999.0,  999.0,  999.0,  999.0,  999.0,  999.0,  999.0,  999.0,  999.0,  999.0,  999.0,  999.0,  999.0,  -35.0,  -42.0,  -42.0,  -35.0,  -41.9,  -27.7,  -41.7,  -31.0
2001/08/17 12:50,  999.0,   -2.0,   -1.5,   -1.2,   -1.1,   -0.6,    0.8,    0.4,   -0.1,   -0.2,   -0.1,   -0.2,   -0.0,   -0.2,   -0.6,   -1.3,   -1.8,   -2.1,   -2.1,    0.4,    1.0,   -0.1,  999.0,  999.0,  999.0,  999.0,  999.0,  999.0,  999.0,  999.0,  999.0,  999.0,  999.0,  999.0,  999.0,  999.0,  999.0,  999.0,  999.0,  999.0,  999.0,  999.0,  999.0,  999.0,  999.0,  999.0,  999.0,  -41.2,  999.0,  -42.0,  -41.3,  999.0,  999.0,  -41.6,  -41.7,  -41.7,  999.0,  -41.4
2001/08/17 13:00,  999.0,    1.3,   -0.2,   -0.1,   -1.8,    1.4,   -1.5,   -1.6,   -1.9,   -0.1,    0.4,    0.9,    1.3,    1.0,    0.8,   -0.6,   -1.7,   -2.2,   -1.8,   -0.6,   -0.6,   -1.7,   -3.7,  999.0,  999.0,  999.0,  999.0,  999.0,  999.0,  999.0,  999.0,  999.0,  999.0,  999.0,  999.0,  999.0,  999.0,  999.0,  999.0,  -41.5,  -41.6,  999.0,  -41.5,  -41.7,  -41.2,  -38.0,  999.0,  -42.0,  -41.8,  -41.9,  -42.1,  -42.1,  -41.5,  -41.7,  999.0,  999.0,  999.0,  -42.1
2001/08/17 13:10,  999.0,   -0.6,    0.6,    1.3,    1.5,   -0.1,   -0.4,   -0.8,   -2.3,   -2.6,   -2.7,   -1.4,    0.3,    1.2,    1.4,    0.0,   -1.3,   -2.7,   -2.6,   -2.0,   -1.9,  999.0,  999.0,  999.0,  999.0,  999.0,  999.0,  999.0,  999.0,  999.0,  999.0,  -40.1,  -41.4,  -40.9,  -41.7,  -41.7,  -41.9,  999.0,  -41.8,  -41.5,  -41.7,  -42.0,  -41.9,  -42.2,  -42.5,  -42.0,  -41.9,  -42.0,  999.0,  -42.0,  -41.8,  -42.2,  -42.5,  -41.7,  -42.0,  -42.0,  -42.1,  -42.5
2001/08/17 13:20,  999.0,    0.6,    0.9,    3.5,    0.5,    2.1,   -0.1,    1.1,    0.1,   -0.2,    0.3,    1.6,    2.0,    2.1,    0.5,    0.2,    0.6,    0.0,   -2.7,   -3.1,   -1.7,   -3.4,   -7.5,  999.0,  999.0,  999.0,  999.0,  999.0,  999.0,  999.0,  -42.0,  999.0,  -41.3,  -41.7,  -41.9,  -41.9,  -41.9,  -41.7,  -41.7,  -42.1,  -41.6,  -41.7,  -41.4,  999.0,  -41.4,  -41.8,  -41.9,  -41.8,  -41.7,  -41.7,  -41.8,  -41.5,  -42.0,  -41.9,  -41.7,  -42.1,  999.0,  -42.3
2001/08/17 13:30,  999.0,   -0.2,   -0.1,    1.4,    0.9,    0.4,    0.3,   -0.1,   -0.7,   -0.3,    0.7,    0.3,   -0.5,   -1.5,   -1.5,   -0.5,    0.1,   -0.6,   -2.0,   -2.1,   -1.0,   -2.3,   -3.8,  999.0,  999.0,  999.0,  999.0,  999.0,  999.0,  999.0,  999.0,  -20.5,  -34.3,  -40.3,  -40.8,  -39.1,  -41.4,  999.0,  -41.7,  -41.8,  -41.8,  -33.1,  -31.8,  -39.1,  -40.2,  -36.2,  -41.8,  -42.0,  -42.0,  -42.3,  -40.0,  -31.1,  -33.6,  -32.3,  -33.4,  -36.1,  -36.3,  -41.7
2001/08/17 13:40,  999.0,    1.0,   -0.3,    1.2,    1.0,    2.0,    2.0,    2.5,    1.2,    1.1,    2.7,   -0.6,   -3.2,   -4.0,   -3.2,   -1.8,   -2.0,   -3.2,   -2.7,   -1.8,   -0.5,   -0.8,   -3.4,  999.0,  999.0,  999.0,  999.0,  999.0,  999.0,  999.0,  999.0,  999.0,  999.0,  -41.9,  999.0,  -42.3,  999.0,  -42.0,  -41.9,  999.0,  -42.2,  -41.8,  999.0,  -41.8,  -41.9,  -42.4,  999.0,  -41.8,  -41.9,  -41.8,  -42.1,  -41.6,  -41.6,  -41.9,  -41.6,  999.0,  -42.0,  999.0
2001/08/17 13:50,  999.0,    2.5,    1.5,    0.7,   -2.4,   -0.7,    1.0,    2.1,    2.3,    2.1,    1.4,    0.8,   -0.5,    0.5,    1.4,    2.3,    0.7,   -1.1,   -1.9,   -1.9,   -0.3,   -1.3,   -1.9,  999.0,  999.0,  999.0,  999.0,  999.0,  999.0,  999.0,  999.0,  999.0,  999.0,  999.0,  999.0,  999.0,  999.0,  999.0,  -37.3,  999.0,  999.0,  -24.3,  -41.9,  -38.2,  -41.6,  -41.9,  -41.4,  -41.6,  -38.3,  -28.7,  999.0,  -30.3,  999.0,  -42.2,  -41.9,  -41.5,  -31.6,  999.0
2001/08/17 14:00,  999.0,    1.0,    1.3,   -0.1,    0.2,    0.0,    1.9,    1.3,    1.5,    1.7,    1.2,    1.0,   -0.2,   -0.9,   -0.9,   -0.2,    0.4,   -0.7,   -1.0,   -1.1,   -0.1,   -1.6,   -1.1,  999.0,  999.0,  999.0,  999.0,  999.0,  999.0,  999.0,  999.0,  999.0,  999.0,   -2.2,   -1.5,   -1.2,   -0.9,   -1.5,  999.0,   -0.7,   -0.7,   -0.6,   -0.8,   -1.0,   -0.8,   -1.0,   -1.0,   -0.6,   -0.6,  999.0,   -0.6,   -1.1,   -0.6,   -0.5,   -0.8,   -0.9,   -0.7,   -1.0
2001/08/17 14:10,  999.0,    0.8,    1.3,    0.4,    0.5,   -0.2,   -3.1,   -2.2,   -1.2,    0.7,    2.1,    0.9,    0.3,    0.1,   -0.2,   -0.5,   -1.2,   -2.4,   -2.6,   -2.5,   -2.0,   -2.9,   -2.2,  999.0,  999.0,  999.0,  999.0,  999.0,  999.0,  999.0,  999.0,  999.0,  999.0,   -0.6,  999.0,   -0.9,   -0.9,  999.0,   -0.4,   -0.7,   -1.2,   -1.0,    1.8,   -0.8,   -1.0,   -1.1,   -0.8,   -0.3,   -0.2,  999.0,   -0.5,   -0.8,   -0.7,   -0.4,   -0.5,   -0.6,   -0.3,   -0.6
2001/08/17 14:20,  999.0,    0.9,    2.3,    1.3,    1.0,    3.0,    3.6,    2.9,    1.6,    1.7,    0.5,   -1.3,   -1.0,   -0.2,    0.7,   -2.7,   -2.3,   -1.0,   -1.5,   -1.9,   -1.6,   -2.2,  999.0,  999.0,  999.0,  999.0,  999.0,  999.0,  999.0,  999.0,  999.0,  999.0,  999.0,  999.0,  999.0,  999.0,  999.0,  999.0,  999.0,  999.0,  999.0,  999.0,  999.0,  999.0,  999.0,  999.0,  999.0,  999.0,  999.0,  999.0,  999.0,  999.0,  999.0,  999.0,  999.0,  999.0,  999.0,  999.0
2001/08/17 14:30,  999.0,    3.1,    2.1,    1.5,    3.2,    3.4,    1.3,    0.9,    1.0,    2.8,    1.9,    1.7,    1.3,    0.5,   -0.9,   -1.4,   -1.2,   -0.9,   -0.5,   -0.3,   -0.5,   -1.3,   -1.8,   -1.5,  999.0,  999.0,  999.0,  999.0,  999.0,  999.0,  999.0,   16.5,  999.0,  999.0,  999.0,   19.0,  999.0,  999.0,  999.0,  999.0,  999.0,  999.0,  999.0,  999.0,  999.0,   20.1,  999.0,  999.0,  999.0,  999.0,  999.0,  999.0,  999.0,  999.0,  999.0,  999.0,  999.0,  999.0
2001/08/17 14:40,  999.0,    2.2,    2.7,    1.7,    3.0,    5.5,    6.3,    6.3,    5.1,    1.1,   -0.5,   -2.1,   -0.1,    1.0,   -0.3,   -1.5,   -1.1,   -0.1,   -0.6,   -1.4,   -1.8,   -1.6,   -2.2,   -2.5,  999.0,  999.0,  999.0,  999.0,  999.0,  999.0,  999.0,  999.0,  999.0,  999.0,  999.0,  999.0,  999.0,  999.0,  999.0,  999.0,  999.0,  999.0,  999.0,  999.0,  999.0,  999.0,  999.0,  999.0,  999.0,  999.0,  999.0,  999.0,  999.0,  999.0,  999.0,  999.0,  999.0,  999.0
2001/08/17 14:50,  999.0,    2.1,    1.5,    2.6,    2.5,    3.2,    3.5,    1.9,    0.9,    0.3,    0.7,   -0.3,   -0.6,   -0.7,   -1.2,   -1.0,   -1.8,   -2.2,   -0.6,    0.5,    0.6,    0.4,    0.0,   -0.4,  999.0,   -5.5,  999.0,  999.0,  999.0,  999.0,  999.0,   -6.1,  999.0,  999.0,  999.0,  999.0,  999.0,  999.0,  999.0,  999.0,  999.0,  999.0,  -20.3,  999.0,  -41.9,  -41.6,  -42.0,  -41.3,  999.0,  -41.8,  999.0,  -40.9,  -41.4,  -28.1,  -42.3,  -41.6,  999.0,  999.0
2001/08/17 15:00,  999.0,    1.9,    0.6,    0.9,    2.1,    1.1,    1.0,    0.4,   -0.5,   -1.5,   -1.1,   -0.8,   -0.6,   -0.8,   -1.6,   -2.8,   -3.3,   -3.6,   -3.2,   -2.2,   -1.3,   -1.5,   -1.8,   -3.5,   -7.5,   -7.9,  999.0,  999.0,  999.0,  999.0,  999.0,  999.0,  999.0,  999.0,  999.0,  999.0,  999.0,  999.0,  999.0,  999.0,  999.0,  999.0,  999.0,  -41.6,  999.0,  -27.9,  -41.4,  -41.6,  999.0,  999.0,  -41.3,  -35.1,  -41.6,  -41.5,  -20.0,  -31.0,  -31.5,  -41.8
2001/08/17 15:10,  999.0,    1.8,    1.9,    1.4,    1.9,    0.1,    1.6,    2.4,    4.7,    3.9,    2.6,    2.7,    1.9,    0.7,   -0.7,   -1.5,   -1.3,   -1.8,   -1.8,   -2.1,   -1.8,   -1.8,   -2.1,   -2.3,   -2.4,   -5.3,  999.0,  999.0,  999.0,  999.0,  999.0,  999.0,  999.0,  999.0,  999.0,  999.0,  999.0,  -41.0,  999.0,  999.0,  999.0,  999.0,  -41.9,  999.0,  999.0,  -41.7,  -37.5,  -41.5,  999.0,  999.0,  999.0,  -41.9,  -42.2,  -41.8,  999.0,  -41.5,  999.0,  -42.2
2001/08/17 15:20,  999.0,    3.1,    1.7,    1.9,    1.8,    2.3,    3.3,    2.1,    1.2,    0.2,    0.6,    0.3,    0.7,    1.0,    0.4,   -1.7,   -4.6,   -6.6,   -7.7,   -6.4,   -4.1,   -1.7,   -1.0,   -0.6,  999.0,  999.0,  999.0,  999.0,  999.0,  999.0,  999.0,  999.0,  999.0,  999.0,  999.0,  999.0,  999.0,  -37.3,  999.0,  -39.0,  -40.6,  -40.1,  -40.7,  -41.8,  -40.9,  -41.6,  -41.8,  999.0,  -41.8,  999.0,  -42.0,  -41.6,  -42.1,  -41.9,  -42.3,  999.0,  -41.6,  999.0
2001/08/17 15:30,  999.0,   -1.1,   -2.2,   -0.1,   -0.2,    3.4,    4.3,    4.2,    2.5,    2.0,    0.5,   -0.7,   -1.4,   -0.5,   -1.2,   -1.4,   -1.3,   -1.3,   -1.9,   -2.6,   -1.9,   -2.9,   -3.4,   -3.6,   -2.9,   -3.7,  999.0,  999.0,  999.0,  999.0,  999.0,  999.0,  999.0,  999.0,  999.0,  999.0,  999.0,  999.0,  -33.9,  999.0,  -37.1,  999.0,  -39.0,  -39.4,  -38.8,  999.0,  -40.7,  -41.2,  -41.2,  -41.8,  999.0,  -41.7,  -42.0,  -42.3,  -41.9,  -42.1,  -42.2,  -42.0
2001/08/17 15:40,  999.0,    1.8,    4.5,    3.7,    3.9,    2.2,    1.1,    0.3,   -0.2,   -0.1,   -0.1,   -1.3,   -2.4,   -1.9,   -1.7,   -0.8,   -0.3,    0.3,    0.3,   -0.2,   -2.0,   -2.5,   -3.3,   -4.0,   -4.5,   -3.3,  999.0,  999.0,  999.0,  999.0,  999.0,  999.0,  999.0,  999.0,  999.0,  999.0,  999.0,  999.0,  999.0,  999.0,  999.0,  999.0,  999.0,  -38.4,  -40.8,  -41.7,  999.0,  999.0,  999.0,  999.0,  999.0,  -41.5,  -42.4,  999.0,  999.0,  999.0,  999.0,  -41.8
2001/08/17 15:50,  999.0,    1.6,    2.3,    1.4,    1.8,    1.4,    0.9,    1.6,    1.3,   -0.4,   -0.3,    0.0,   -0.7,   -2.4,   -2.2,   -2.3,   -1.1,   -0.3,    0.1,   -0.3,   -0.8,   -1.5,   -2.4,   -2.5,   -2.8,   -3.1,  999.0,  999.0,  999.0,  999.0,  999.0,  999.0,  999.0,  999.0,  999.0,  999.0,  999.0,  999.0,  999.0,  -42.1,  -41.8,  -42.1,  -41.7,  -41.9,  -41.8,  -42.2,  -41.9,  999.0,  -41.6,  -42.0,  -41.6,  -41.5,  -41.7,  -41.6,  -41.9,  999.0,  -41.7,  -41.9
2001/08/17 16:00,  999.0,    1.1,    1.5,    3.2,    2.3,    2.4,    2.2,    2.1,    1.7,    1.5,    1.1,    0.7,   -0.1,   -0.8,   -0.7,   -1.2,   -1.3,   -1.4,   -1.0,   -1.5,   -2.1,   -2.6,   -2.8,   -3.3,   -3.4,  999.0,  999.0,  999.0,  999.0,  999.0,  999.0,  999.0,  999.0,  999.0,  999.0,  999.0,  999.0,  999.0,  -39.8,  999.0,  999.0,  -41.9,  -42.5,  999.0,  -42.5,  999.0,  -42.1,  -41.7,  -42.2,  -41.7,  -42.0,  -41.6,  999.0,  -41.8,  -42.0,  -41.8,  -41.6,  -41.9
2001/08/17 16:10,  999.0,    1.6,    1.5,    1.3,    2.0,    2.4,    2.6,    2.9,    2.9,    2.4,    1.6,    0.5,    0.3,    0.0,   -0.3,   -0.3,   -0.2,   -1.0,   -1.9,   -2.7,   -2.8,   -2.6,   -1.7,   -2.7,   -3.6,   -2.7,   -1.5,  999.0,  999.0,  999.0,  999.0,  999.0,  999.0,  999.0,  999.0,  999.0,  999.0,  -38.7,  -41.6,  -40.9,  -42.1,  -41.8,  -42.2,  -42.6,  -42.0,  -42.1,  -41.7,  999.0,  -41.6,  -41.5,  -41.7,  -41.6,  -41.7,  -41.9,  999.0,  -42.1,  -41.7,  -41.8
2001/08/17 16:20,  999.0,    1.0,    1.1,    0.9,    2.0,    2.8,    2.4,    2.1,    2.0,    1.7,    1.0,    0.5,   -0.2,   -0.1,   -0.6,   -1.1,   -0.7,   -0.4,   -0.2,   -1.2,   -1.7,   -1.7,   -2.3,   -3.0,   -2.9,   -3.1,   -2.5,   -2.5,  999.0,  999.0,  999.0,  999.0,  999.0,  999.0,  999.0,  999.0,  999.0,  999.0,  999.0,  -40.6,  -41.4,  -41.8,  999.0,  999.0,  -42.2,  -41.7,  -41.9,  -41.8,  -42.3,  -41.6,  -42.0,  -42.1,  999.0,  -41.6,  -41.8,  -41.8,  -42.2,  -42.0
2001/08/17 16:30,  999.0,    1.3,    0.8,    0.5,    0.2,    0.4,    0.9,    1.3,    1.5,    1.5,    1.2,    1.2,    0.7,   -0.0,   -0.2,    0.1,   -0.2,   -0.4,   -0.4,   -1.1,   -1.9,   -1.6,   -2.3,   -2.3,   -2.5,   -3.1,   -4.8,   -4.6,  999.0,  999.0,  999.0,  999.0,  999.0,  999.0,  999.0,  999.0,  999.0,  -41.0,  -41.1,  -41.5,  -41.4,  -42.3,  -42.5,  -42.1,  -42.0,  -41.8,  999.0,  -41.6,  -42.3,  -41.5,  -41.4,  -41.7,  -41.7,  -41.5,  -42.1,  -42.0,  -41.8,  -42.3
2001/08/17 16:40,  999.0,    1.2,    0.8,    1.2,    1.1,  999.0,  999.0,   -0.0,   -0.2,    0.1,    0.2,   -0.2,   -0.3,   -1.0,   -1.2,   -1.2,   -1.3,   -1.6,   -0.9,   -1.0,   -1.0,   -1.8,   -2.1,   -1.8,   -1.5,   -2.6,   -4.3,  999.0,  999.0,  999.0,  999.0,  999.0,  999.0,  999.0,  999.0,  999.0,  999.0,  999.0,  999.0,  -41.5,  -42.4,  -41.7,  -41.8,  -42.1,  -42.1,  -41.6,  -41.6,  -41.9,  -41.7,  -42.0,  999.0,  -41.9,  -41.9,  -41.6,  -41.6,  -41.7,  999.0,  -41.8
2001/08/17 16:50,  999.0,    1.4,    0.8,    0.6,   -0.5,  999.0,    1.3,    0.6,   -0.1,   -0.5,   -0.5,   -0.4,   -0.3,   -0.1,   -0.5,   -1.0,   -0.8,   -1.3,   -1.9,   -2.7,   -3.1,   -2.6,   -2.4,   -2.4,   -4.1,   -5.4,   -5.3,   -1.0,  999.0,  999.0,  999.0,  999.0,  999.0,  999.0,  999.0,  999.0,  999.0,  999.0,  999.0,  999.0,  999.0,  -41.5,  -41.3,  999.0,  -42.0,  999.0,  -41.8,  -42.0,  -42.4,  -42.0,  -42.0,  -41.5,  -41.3,  -41.5,  999.0,  -41.7,  999.0,  -42.0
2001/08/17 17:00,  999.0,    2.0,    2.1,    2.5,    1.4,    0.7,    0.9,    0.9,    0.2,    0.2,    0.1,   -0.5,   -0.9,   -1.4,   -1.8,   -1.7,   -1.6,   -1.8,   -2.1,   -1.9,   -1.3,   -1.0,   -1.2,   -2.3,   -3.4,   -2.7,   -4.9,   -0.6,  999.0,  999.0,  999.0,  999.0,  999.0,  999.0,  -41.7,  999.0,  999.0,  -41.9,  -41.8,  -41.3,  -41.4,  999.0,  -41.6,  -41.9,  999.0,  999.0,  999.0,  999.0,  -41.6,  999.0,  999.0,  -41.4,  -41.8,  999.0,  999.0,  999.0,  -42.2,  -42.1
2001/08/17 17:10,  999.0,    1.3,    1.5,    1.4,    1.0,    0.7,    1.0,    1.7,    1.6,    1.0,    0.7,   -0.0,   -0.1,   -0.8,   -1.6,   -2.3,   -3.0,   -3.7,   -3.7,   -3.1,   -2.1,   -1.3,   -1.4,   -0.3,   -4.1,   -2.6,   -1.1,   -2.4,   -2.1,  999.0,  999.0,  999.0,  999.0,  999.0,  999.0,  999.0,  999.0,  -41.4,  999.0,  999.0,  999.0,  -41.8,  -40.0,  999.0,  -40.6,  999.0,  -41.8,  999.0,  999.0,  -41.6,  -41.5,  -41.7,  999.0,  -41.1,  999.0,  -41.6,  -41.7,  999.0
2001/08/17 17:20,  999.0,    1.5,    1.3,    0.5,    0.4,    0.3,    0.4,    1.4,    1.4,    0.5,    0.7,    0.7,    0.9,    0.8,    0.5,    0.0,   -0.4,   -0.2,   -0.4,   -0.6,   -0.8,   -0.9,   -1.5,   -2.5,   -2.2,   -1.6,   -1.5,   -1.1,   -1.8,    1.1,  999.0,  999.0,  999.0,  999.0,  999.0,  999.0,  -26.1,  999.0,  999.0,  999.0,  -38.9,  -35.1,  -35.0,  -41.6,  -38.4,  -37.5,  -40.9,  999.0,  -41.5,  999.0,  999.0,  999.0,  -41.2,  -41.0,  999.0,  -41.1,  -41.6,  999.0
2001/08/17 17:30,  999.0,    1.1,    0.8,    0.6,    0.6,    0.1,   -0.3,    1.0,    1.5,    2.9,    1.5,    0.7,   -1.1,   -0.8,   -1.0,   -1.5,   -2.0,   -3.1,   -2.5,   -1.4,   -1.2,   -0.9,   -0.6,   -0.3,   -1.0,   -0.3,    0.2,    0.9,    1.4,  999.0,  999.0,  999.0,  999.0,  999.0,  999.0,  999.0,  999.0,  999.0,  999.0,  999.0,  999.0,  999.0,  999.0,  999.0,  -39.3,  -40.2,  -41.0,  -41.8,  -41.9,  -42.1,  999.0,  999.0,  -42.0,  -42.3,  -41.9,  -41.2,  -41.5,  -41.4
2001/08/17 17:40,  999.0,    0.5,   -1.0,  999.0,   -2.4,   -1.5,   -2.4,   -3.4,   -3.6,   -4.4,   -3.8,  999.0,   -3.4,   -0.0,    1.7,    1.5,  999.0,   -0.8,   -0.0,   -0.7,   -1.0,   -1.6,   -1.4,   -1.8,   -2.6,   -1.1,   -0.4,    0.9,  999.0,  999.0,  999.0,  999.0,  999.0,  999.0,  999.0,  999.0,  999.0,  999.0,  999.0,  999.0,  999.0,  999.0,  999.0,  999.0,  999.0,  999.0,  999.0,  999.0,  999.0,  999.0,  999.0,  999.0,  999.0,  999.0,  999.0,  999.0,  999.0,  999.0
2001/08/17 17:50,  999.0,    1.1,    0.6,    1.0,    0.5,    0.3,   -0.0,   -0.2,   -0.0,    0.9,   -0.1,  999.0,   -1.3,    0.7,    0.3,    0.2,    0.6,    1.3,    0.8,    0.9,    1.4,    1.6,    0.6,   -0.6,   -1.6,   -1.2,    0.7,    1.9,    3.4,    4.1,    4.9,  999.0,  999.0,  999.0,  999.0,  999.0,  999.0,  999.0,  999.0,  999.0,  999.0,  999.0,  999.0,  999.0,  999.0,  999.0,  999.0,  999.0,  999.0,  999.0,  999.0,  999.0,  999.0,  999.0,  999.0,  999.0,  999.0,  999.0
2001/08/17 18:00,  999.0,   -0.2,    0.9,    1.1,    1.0,    0.8,    0.7,    0.2,   -0.5,   -1.0,   -0.9,   -0.1,    0.6,    0.9,    1.2,    0.0,    0.2,   -0.1,   -0.1,    0.4,    0.2,   -0.0,   -0.6,   -1.4,   -1.1,    0.1,    1.2,    1.5,    3.6,    4.5,  999.0,  999.0,  999.0,  999.0,  999.0,  999.0,  999.0,  999.0,  999.0,  999.0,  999.0,  999.0,  999.0,  999.0,  999.0,  999.0,  999.0,  999.0,  999.0,  999.0,  999.0,  999.0,  999.0,  999.0,  999.0,  999.0,  999.0,  999.0
2001/08/17 18:10,  999.0,    0.8,    0.4,    1.5,    1.5,    1.0,    0.5,    0.1,    0.1,    0.3,   -0.1,   -0.1,    0.6,    0.6,    0.2,   -0.0,    0.0,    0.0,    0.9,    0.3,   -0.4,   -1.9,   -2.4,   -3.1,   -3.4,   -3.7,   -2.9,   -2.2,    0.9,    2.0,    0.0,    3.3,    7.9,  999.0,  999.0,  999.0,  999.0,  999.0,  999.0,  999.0,  999.0,  999.0,  999.0,  999.0,  999.0,  999.0,  999.0,  999.0,  999.0,  999.0,  999.0,  999.0,  999.0,  999.0,  999.0,  999.0,  999.0,  999.0
2001/08/17 18:20,  999.0,    1.1,   -0.3,    0.8,   -0.6,   -0.4,   -0.8,   -0.7,   -0.7,   -0.8,   -1.1,   -0.6,   -0.1,   -0.2,    0.6,    0.5,    2.3,    2.7,    2.0,    0.6,    0.8,    2.5,    6.2,    5.7,    8.9,   16.8,   19.8,   14.2,   12.4,   12.7,  999.0,  999.0,  999.0,  999.0,  999.0,  999.0,  999.0,  999.0,  999.0,  999.0,  999.0,  999.0,  999.0,  999.0,  999.0,  999.0,  999.0,  999.0,  999.0,  999.0,  999.0,  999.0,  999.0,  999.0,  999.0,  999.0,  999.0,  999.0
2001/08/17 18:30,  999.0,   -0.7,   -4.4,   -4.6,   -4.6,   -4.0,   -4.9,   -4.8,   -1.7,   -2.8,   -0.4,   -0.8,    0.3,    1.1,    2.3,   -0.2,    0.1,    0.0,    0.5,    0.6,    1.5,    2.0,    4.8,    6.2,    9.6,   11.5,    9.8,    7.7,    6.6,    6.4,    5.4,  999.0,  999.0,  999.0,  999.0,  999.0,  999.0,   15.6,   15.1,  999.0,  999.0,  999.0,  999.0,  999.0,  999.0,  999.0,  999.0,  999.0,  999.0,  999.0,  999.0,  999.0,  999.0,  999.0,  999.0,  999.0,  999.0,  999.0
2001/08/17 18:40,  999.0,    1.1,    0.3,   -1.1,  999.0,  999.0,   -1.9,   -1.7,   -1.3,   -0.3,   -0.3,   -0.1,   -0.2,   -0.2,    0.3,    0.1,   -0.9,    0.0,    2.6,    2.8,    2.3,    3.8,    4.2,    4.6,    4.9,    4.7,    4.4,    4.8,    2.7,  999.0,  999.0,  999.0,  999.0,  999.0,  999.0,  999.0,    8.5,  999.0,  999.0,  999.0,  999.0,  999.0,  999.0,    8.6,  999.0,  999.0,    5.6,  999.0,    3.7,  999.0,  999.0,    2.2,  999.0,  999.0,    1.0,  999.0,  999.0,  999.0
2001/08/17 18:50,  999.0,    0.3,   -0.0,    0.4,    0.4,   -1.1,   -1.4,   -1.3,   -0.2,   -1.0,    0.2,   -1.5,    0.5,   -0.3,    0.1,   -0.6,    0.0,    1.2,    1.8,    2.2,    2.2,    2.0,    2.4,    2.8,    3.5,    2.3,    2.2,    1.6,    2.5,    2.9,  999.0,  999.0,  999.0,  999.0,  999.0,  999.0,  999.0,  999.0,  999.0,  999.0,  999.0,  999.0,  999.0,  999.0,  999.0,  999.0,  999.0,  999.0,  999.0,  999.0,  999.0,  999.0,  999.0,  999.0,  999.0,  999.0,  999.0,  999.0
2001/08/17 19:00,  999.0,    0.8,    1.2,    0.7,   -0.4,    1.1,   -1.8,   -0.9,   -1.5,   -2.1,   -0.4,    1.0,    0.3,   -0.1,   -0.2,   -0.5,    0.5,    1.4,    1.2,    1.5,    1.0,    1.0,    1.0,    0.6,    0.0,   -0.4,    1.2,    1.5,    1.7,    2.4,  999.0,  999.0,  999.0,  999.0,  999.0,  999.0,  999.0,  999.0,  999.0,  999.0,  999.0,  999.0,  999.0,  999.0,  999.0,  999.0,  999.0,  999.0,    2.8,  999.0,  999.0,    1.6,  999.0,  999.0,  999.0,    0.4,   -0.4,  999.0
2001/08/17 19:10,  999.0,    1.5,    0.7,    0.3,   -0.5,   -0.1,    0.3,    0.0,   -0.8,   -1.5,   -1.9,   -1.1,   -0.4,    0.1,    0.3,   -0.7,   -0.2,    0.9,    1.3,    2.1,    0.3,  999.0,  999.0,   -0.8,    0.2,    0.8,    1.1,    1.0,    1.7,    2.1,  999.0,  999.0,  999.0,  999.0,  999.0,  999.0,  999.0,  999.0,  999.0,  999.0,  999.0,  999.0,  999.0,    4.8,  999.0,    2.4,  999.0,  999.0,  999.0,  999.0,    0.2,    1.5,  999.0,  999.0,  999.0,  999.0,   -7.1,    0.2
2001/08/17 19:20,  999.0,    0.3,   -0.3,    1.2,   -1.6,   -0.0,   -0.6,    0.1,   -0.8,   -1.9,   -2.3,   -1.8,   -1.0,   -0.6,   -1.2,   -1.9,   -1.1,    1.4,    2.0,    0.7,  999.0,  999.0,   -2.1,  999.0,   -0.8,    0.8,    0.0,    1.7,    1.7,    2.5,    4.3,    3.3,  999.0,  999.0,  999.0,  999.0,  999.0,  999.0,  999.0,  999.0,  999.0,  999.0,    4.7,    5.2,  999.0,  999.0,  999.0,  999.0,    1.2,  999.0,  999.0,    0.8,  999.0,    0.5,  999.0,  999.0,  999.0,  999.0
2001/08/17 19:30,  999.0,    0.5,    0.5,    0.0,   -0.9,   -0.8,   -0.5,   -0.7,   -1.0,   -1.1,   -0.7,   -0.6,    0.7,    0.2,    0.0,   -0.5,    0.3,    0.5,    0.1,   -0.6,   -0.7,   -2.2,  999.0,  999.0,   -1.1,   -2.1,  999.0,    0.4,    2.1,    2.0,    2.6,    2.6,  999.0,  999.0,  999.0,  999.0,  999.0,  999.0,  999.0,  999.0,  999.0,  999.0,    4.5,  999.0,  999.0,    3.8,  999.0,    2.2,  999.0,  999.0,    1.1,    1.3,  999.0,    1.5,  999.0,    0.3,    0.5,  999.0
2001/08/17 19:40,  999.0,    0.2,   -0.0,    0.4,   -0.8,   -0.7,   -0.6,   -0.8,   -0.9,   -1.3,   -1.5,   -1.4,   -0.1,   -0.2,   -0.2,   -0.8,   -2.1,   -1.4,   -0.7,   -0.6,   -0.5,   -1.2,   -1.1,    0.3,    0.3,    0.2,   -0.0,    0.7,    1.2,    2.1,    2.6,  999.0,  999.0,  999.0,  999.0,  999.0,  999.0,  999.0,  999.0,  999.0,   12.3,  999.0,  999.0,  999.0,  999.0,    7.4,  999.0,  999.0,  999.0,  999.0,  999.0,  999.0,  999.0,  999.0,  999.0,  999.0,  999.0,  999.0
2001/08/17 19:50,  999.0,   -0.2,   -0.1,   -0.4,   -0.5,   -1.4,   -0.7,   -0.6,   -0.0,   -0.9,   -1.0,   -1.2,   -1.0,    0.1,    0.7,    0.4,    0.1,   -0.4,   -0.6,   -1.2,   -0.9,   -1.7,   -1.9,   -2.0,   -1.0,  999.0,  999.0,   -1.0,   -0.4,    0.9,    1.4,  999.0,  999.0,  999.0,  999.0,  999.0,  999.0,  999.0,  999.0,  999.0,  999.0,  999.0,  999.0,  999.0,  999.0,  999.0,  999.0,  999.0,  999.0,  999.0,  999.0,  999.0,  999.0,  999.0,  999.0,  999.0,  999.0,  999.0
2001/08/17 20:00,  999.0,    1.2,   -0.4,    0.2,    2.6,   -0.5,    3.9,    2.3,   -2.4,   -2.8,   -0.8,   -2.0,   -0.7,   -1.4,   -1.5,   -1.0,    0.3,   -0.0,   -1.4,   -3.5,   -4.5,   -3.6,   -3.0,   -4.1,   -3.3,   -4.4,   -4.0,   -1.5,    0.7,    1.3,    4.9,  999.0,  999.0,  999.0,  999.0,  999.0,  999.0,  999.0,  999.0,  999.0,  999.0,  999.0,  999.0,  999.0,  999.0,  999.0,  999.0,  999.0,  999.0,  999.0,  999.0,  999.0,  999.0,  999.0,  999.0,  999.0,  999.0,  999.0
2001/08/17 20:10,  999.0,  999.0,  999.0,  999.0,    0.5,    4.3,    0.6,    0.2,    0.6,   -0.5,   -2.1,    0.4,    0.4,    8.6,   -0.4,    0.0,    1.2,    4.2,    4.8,    4.1,    4.9,    3.1,   -1.0,   -3.8,   -5.4,   -5.6,   -2.2,   -1.4,   -0.4,   -0.4,    1.1,    0.8,  999.0,  999.0,  999.0,  999.0,  999.0,  999.0,  999.0,  999.0,  999.0,  999.0,  999.0,  999.0,  999.0,  999.0,  999.0,  999.0,    0.7,  999.0,    0.8,  999.0,  999.0,  999.0,  999.0,  999.0,    0.7,    0.2
2001/08/17 20:20,  999.0,  999.0,  999.0,    3.2,    6.0,  999.0,    3.0,    4.4,    4.4,   -0.1,    2.4,    5.5,    2.8,    1.3,    0.4,    1.7,    2.3,    2.2,    1.4,   -0.0,    0.5,    0.9,    1.3,    3.0,    4.9,    6.3,    6.7,    7.6,    8.0,   10.6,  999.0,  999.0,  999.0,  999.0,  999.0,  999.0,    7.2,  999.0,  999.0,    8.9,  999.0,    6.2,    0.8,    5.9,    0.5,    0.7,    3.4,  999.0,    1.3,    2.8,  999.0,    0.5,  999.0,  999.0,  999.0,    0.8,  999.0,  999.0
2001/08/17 20:30,  999.0,    6.1,    6.1,    6.0,    7.5,  999.0,    3.1,    4.1,    4.8,    2.7,    0.1,    0.7,    2.2,    2.9,    2.4,   -1.1,   -2.6,   -1.4,   -3.0,   -1.4,   -1.1,   -2.0,   -2.2,   -1.8,    0.2,    1.4,    2.5,    3.6,    5.8,    6.8,  999.0,  999.0,  999.0,  999.0,  999.0,  999.0,  999.0,  999.0,  999.0,  999.0,  999.0,  999.0,  999.0,  999.0,  999.0,  999.0,    0.7,    0.6,    0.6,    0.7,  999.0,  999.0,    0.3,    0.1,  999.0,    1.3,  999.0,    0.6
2001/08/17 20:40,  999.0,  999.0,   -2.0,    4.5,    1.3,    3.5,    1.1,    0.3,    0.3,    0.3,   -2.0,    0.4,   -2.6,   -4.2,   -7.8,   -9.2,   -3.0,   -4.1,   -1.2,   -0.7,    0.1,    0.1,    0.6,   -0.4,    1.0,    0.7,    1.1,    1.3,    2.2,    3.3,    3.4,  999.0,  999.0,  999.0,  999.0,  999.0,  999.0,  999.0,  999.0,  999.0,  999.0,  999.0,  999.0,  999.0,  999.0,  999.0,  999.0,  999.0,  999.0,  999.0,  999.0,  999.0,  999.0,  999.0,  999.0,  999.0,  999.0,  999.0
2001/08/17 20:50,  999.0,  999.0,  999.0,    0.9,    0.8,    1.0,    0.1,    0.3,    0.2,   -0.8,   -0.0,   -1.0,  999.0,  999.0,    0.6,    0.5,   -0.7,   -0.3,   -0.9,   -1.2,   -0.9,   -0.5,   -0.2,   -1.6,   -2.0,   -0.5,    0.0,    0.7,    2.6,    3.7,    4.8,  999.0,  999.0,  999.0,  999.0,  999.0,  999.0,  999.0,  999.0,  999.0,  999.0,  999.0,  999.0,  999.0,  999.0,  999.0,  999.0,  999.0,  999.0,  999.0,  999.0,  999.0,  999.0,  999.0,  999.0,  999.0,  999.0,  999.0
2001/08/17 21:00,  999.0,   -0.5,    0.5,   -1.6,   -0.7,   -1.4,    2.5,  999.0,    0.1,  999.0,   -0.2,    0.1,   -0.3,   -0.4,  999.0,  999.0,  999.0,    0.0,   -0.5,   -0.2,   -0.4,   -0.5,    1.0,   -1.1,    0.2,    2.1,    2.7,    3.2,    4.3,    4.7,  999.0,  999.0,  999.0,  999.0,  999.0,  999.0,  999.0,  999.0,  999.0,  999.0,  999.0,  999.0,  999.0,  999.0,  999.0,  999.0,  999.0,    3.3,    3.3,    2.7,  999.0,    1.1,    0.8,  999.0,    0.3,    0.9,  999.0,  999.0
2001/08/17 21:10,  999.0,   -2.2,   -3.6,   -2.3,   -2.4,   -0.3,   -0.0,    0.6,    1.0,    1.0,    0.4,    0.9,    0.5,  999.0,  999.0,  999.0,    0.4,   -0.4,   -0.1,    0.5,    0.1,   -1.0,   -1.3,   -1.9,    0.2,    2.2,    2.1,    3.2,    5.0,    4.7,    3.1,  999.0,  999.0,  999.0,  999.0,  999.0,  999.0,  999.0,  999.0,  999.0,  999.0,  999.0,  999.0,  999.0,  999.0,   11.9,  999.0,  999.0,    1.4,    7.3,    3.0,    9.9,  999.0,    0.5,    0.4,    9.6,    8.5,   11.4
2001/08/17 21:20,  999.0,  999.0,   -1.8,   -1.4,    0.1,   -2.0,   -2.6,   -0.3,   -0.1,   -0.5,   -0.9,   -1.5,   -1.8,   -1.2,   -1.8,   -1.5,   -1.4,   -0.9,   -0.6,   -0.6,   -0.3,   -0.3,  999.0,  999.0,  999.0,    0.8,    2.7,    4.3,    5.0,    4.7,    5.5,  999.0,  999.0,  999.0,  999.0,  999.0,  999.0,  999.0,  999.0,  999.0,  999.0,  999.0,  999.0,  999.0,  999.0,  999.0,   14.3,  999.0,   13.1,  999.0,   20.7,  999.0,  999.0,  999.0,  999.0,  999.0,  999.0,  999.0
2001/08/17 21:30,  999.0,  999.0,    0.5,   -2.7,   -0.8,   -1.2,   -0.4,   -0.5,  999.0,    0.5,    0.0,   -0.1,   -1.0,   -0.7,   -1.0,   -0.1,    1.2,    0.9,   -0.3,   -0.1,    0.7,    0.5,    0.6,    1.5,   -0.5,    1.1,    2.2,    4.5,    5.0,    5.1,  999.0,  999.0,  999.0,  999.0,  999.0,  999.0,  999.0,  999.0,  999.0,  999.0,  999.0,  999.0,  999.0,  999.0,  999.0,  999.0,  999.0,  999.0,  999.0,  999.0,  999.0,  999.0,  999.0,  999.0,  999.0,  999.0,  999.0,  999.0
2001/08/17 21:40,  999.0,  999.0,   -4.5,    0.1,   -0.7,   -1.1,   -0.5,    0.6,    0.4,   -0.3,   -0.1,   -0.0,   -0.4,   -0.6,   -0.5,  999.0,    0.2,   -0.0,   -0.3,   -0.0,   -0.5,    1.2,    1.5,    1.3,   -0.1,    0.3,    0.9,    3.6,    4.6,    4.7,    5.6,    8.7,  999.0,  999.0,  999.0,  999.0,  999.0,  999.0,  999.0,  999.0,   20.9,  999.0,  999.0,  999.0,  999.0,   24.4,  999.0,   23.0,  999.0,  999.0,  999.0,  999.0,  999.0,   21.2,  999.0,  999.0,  999.0,  999.0
2001/08/17 21:50,  999.0,   -0.3,   -1.2,   -1.7,   -2.1,   -1.3,   -0.5,   -0.3,    0.3,    0.4,    0.3,   -0.2,   -0.4,   -0.6,   -0.6,  999.0,    0.7,    0.9,    1.1,    0.3,    0.9,    1.2,    1.3,    1.7,    2.5,    3.5,    4.9,  999.0,    5.5,    6.0,    6.4,    6.2,  999.0,  999.0,  999.0,  999.0,  999.0,  999.0,  999.0,  999.0,  999.0,  999.0,  999.0,  999.0,  999.0,  999.0,  999.0,  999.0,  999.0,  999.0,  999.0,  999.0,  999.0,  999.0,  999.0,  999.0,  999.0,  999.0
2001/08/17 22:00,  999.0,  999.0,  999.0,   -2.2,   -2.0,   -0.9,   -1.0,    0.2,   -0.3,   -1.6,   -1.9,   -2.1,   -1.5,   -1.2,   -0.6,   -0.4,    0.6,    0.6,    0.7,    0.4,    0.3,    0.4,   -1.0,    1.4,    2.5,    3.1,    5.1,    5.4,    5.9,    5.9,  999.0,  999.0,  999.0,  999.0,  999.0,  999.0,  999.0,  999.0,  999.0,  999.0,    8.9,  999.0,  999.0,  999.0,    6.8,    9.8,  999.0,  999.0,  999.0,    5.7,  999.0,  999.0,    3.1,  999.0,  999.0,    0.5,    0.3,  999.0
2001/08/17 22:10,  999.0,    1.1,   -0.6,   -2.4,   -2.2,   -1.8,   -0.6,   -0.6,   -0.1,   -0.2,   -0.4,   -0.9,   -1.0,   -1.2,   -1.1,   -0.9,  999.0,    1.0,    0.6,    0.4,    0.4,    0.5,    0.4,    1.0,    2.1,    3.1,    5.0,    5.0,    6.3,    5.9,  999.0,  999.0,  999.0,  999.0,  999.0,  999.0,  999.0,  999.0,  999.0,  999.0,  999.0,  999.0,  999.0,    6.4,  999.0,  999.0,  999.0,  999.0,  999.0,  999.0,    1.1,  999.0,  999.0,  999.0,    0.7,    0.7,  999.0,    0.0
2001/08/17 22:20,  999.0,   -3.5,   -4.4,   -1.1,   -1.4,   -1.8,   -1.1,   -1.1,   -0.6,   -0.2,   -0.1,   -0.7,   -1.2,   -0.9,   -0.3,    1.0,    0.0,    0.3,    0.3,    1.0,    1.5,    0.4,    0.7,    1.0,    1.0,    2.3,    0.8,    3.7,    4.4,    4.2,    5.2,  999.0,  999.0,  999.0,  999.0,  999.0,  999.0,  999.0,  999.0,  999.0,    7.1,  999.0,  999.0,    2.8,    4.3,    1.9,    1.1,  999.0,    1.0,  999.0,    0.6,    0.8,    0.5,  999.0,    0.5,    0.6,  999.0,  999.0
2001/08/17 22:30,  999.0,   -2.3,    0.2,    1.4,   -1.4,   -1.6,   -2.0,   -1.7,   -1.3,   -0.6,   -0.2,   -0.2,   -0.4,   -0.7,   -0.0,  999.0,   -1.1,   -0.5,    0.5,    1.1,    1.2,    0.7,    0.4,   -0.2,   -0.7,  999.0,  999.0,  999.0,    1.4,  999.0,  999.0,  999.0,  999.0,  999.0,  999.0,  999.0,  999.0,  999.0,  999.0,   14.9,  999.0,   15.0,   14.8,   12.8,  999.0,  999.0,  999.0,  999.0,  999.0,  999.0,  999.0,  999.0,   11.0,  999.0,    2.2,    7.8,  999.0,    0.8
2001/08/17 22:40,  999.0,   -2.3,   -1.7,   -2.0,   -3.5,   -2.3,   -2.3,   -2.0,   -1.7,   -1.9,   -1.0,   -0.7,   -1.1,    0.1,   -0.2,   -0.3,    0.5,    0.9,    1.3,    1.3,    0.6,    0.5,   -0.2,   -0.5,    1.1,    1.3,  999.0,  999.0,  999.0,  999.0,  999.0,  999.0,  999.0,  999.0,  999.0,  999.0,   12.0,  999.0,  999.0,  999.0,    8.8,  999.0,    8.1,  999.0,    3.3,  999.0,    3.5,    2.9,  999.0,  999.0,  999.0,    1.7,  999.0,    1.3,  999.0,    0.6,  999.0,  999.0
2001/08/17 22:50,  999.0,   -2.3,   -1.8,   -1.1,   -1.5,   -1.4,   -2.1,   -1.4,    0.3,   -0.1,    0.9,    1.9,   -1.2,   -0.2,    1.3,  999.0,  999.0,    1.6,    1.7,    0.6,    0.1,   -0.5,  999.0,  999.0,  999.0,  999.0,  999.0,  999.0,  999.0,  999.0,  999.0,  999.0,  999.0,  999.0,  999.0,  999.0,  999.0,  999.0,  999.0,  999.0,  999.0,    1.8,    2.6,  999.0,    0.6,    0.8,    1.3,  999.0,    0.9,    0.6,    0.9,    0.3,    0.6,    0.6,    0.8,    0.5,  999.0,  999.0
2001/08/17 23:00,  999.0,    4.9,    1.8,   -1.9,   -0.5,   -1.4,   -2.3,   -2.4,   -1.7,   -1.3,   -1.1,   -1.7,   -1.7,   -2.4,  999.0,    1.0,    0.2,    1.1,    1.4,    1.4,   -0.0,   -1.6,  999.0,  999.0,   -2.6,   -0.9,  999.0,  999.0,  999.0,  999.0,  999.0,  999.0,  999.0,  999.0,  999.0,  999.0,  999.0,  999.0,  999.0,  999.0,    1.9,    1.5,    1.3,    1.0,    0.9,  999.0,    0.9,    0.6,  999.0,    0.7,    0.6,  999.0,    0.5,    0.7,  999.0,  999.0,   -0.3,    0.1
2001/08/17 23:10,  999.0,   -0.9,    1.2,   -0.1,    1.4,   -1.2,   -1.6,   -2.0,   -1.9,   -1.3,   -0.6,   -1.1,   -0.8,  999.0,    0.7,    0.8,    0.5,    0.7,    0.4,   -1.6,   -3.2,   -4.4,  999.0,   -4.3,   -1.3,  999.0,  999.0,  999.0,  -11.0,   -7.7,  999.0,  999.0,  999.0,  999.0,  999.0,  999.0,  999.0,  999.0,  999.0,    1.0,    0.5,    0.4,    0.9,    0.5,  999.0,  999.0,  999.0,    1.0,    0.3,  999.0,    0.7,    0.5,    0.3,  999.0,  999.0,  999.0,    0.5,  999.0
2001/08/17 23:20,  999.0,    3.4,    0.1,   -1.0,   -1.3,   -1.7,   -2.3,   -2.0,   -2.0,   -0.3,   -0.8,   -1.5,   -0.7,   -0.2,    0.0,    0.3,    1.3,    2.0,    1.3,    0.2,   -0.3,    0.6,    0.8,  999.0,  999.0,  999.0,  999.0,  999.0,  999.0,  999.0,  999.0,  999.0,  999.0,  999.0,  999.0,  999.0,  999.0,  999.0,  999.0,  999.0,  999.0,  999.0,    6.2,    6.1,  999.0,    4.6,  999.0,  999.0,  999.0,   -5.9,    1.8,  999.0,  999.0,  999.0,  999.0,  999.0,  999.0,  999.0
2001/08/17 23:30,  999.0,   -0.8,    0.9,   -0.8,   -0.5,   -2.3,   -2.7,   -2.6,  999.0,   -1.7,   -1.2,   -0.5,   -0.3,    0.0,    1.1,    0.9,    1.6,    2.6,    1.0,    0.8,    0.4,   -0.1,    0.9,  999.0,  999.0,  999.0,  999.0,  999.0,  999.0,  999.0,  999.0,  999.0,  999.0,  999.0,  999.0,  999.0,  999.0,  999.0,  999.0,  999.0,  999.0,  999.0,  999.0,  999.0,  999.0,  999.0,   -1.6,    1.0,    1.5,  999.0,    0.9,    1.4,    1.2,  999.0,  999.0,  999.0,    0.3,    0.5
2001/08/17 23:40,  999.0,   -1.6,   -1.0,   -0.9,    0.2,   -1.4,   -2.3,   -2.3,  999.0,   -1.7,   -1.0,   -1.3,  999.0,   -0.3,    0.5,    1.2,    1.1,    0.9,    0.7,    0.8,    0.1,    0.8,    0.7,  999.0,  999.0,  999.0,  999.0,  999.0,   -4.2,  999.0,  999.0,  999.0,  999.0,  999.0,  999.0,  999.0,  999.0,  999.0,  999.0,  999.0,  999.0,  999.0,  999.0,  999.0,  999.0,  999.0,  999.0,  999.0,  999.0,  999.0,    1.9,  999.0,    1.3,    0.7,   -0.7,  999.0,  999.0,  999.0
2001/08/17 23:50,  999.0,   -1.2,    1.1,   -1.0,   -1.7,   -0.9,   -1.1,   -1.6,   -2.2,   -1.7,   -0.6,   -1.6,   -1.6,   -0.7,    0.6,    0.4,    0.1,    0.8,    0.3,    0.5,    0.1,   -0.2,    1.8,  999.0,  999.0,  999.0,  999.0,  999.0,  999.0,  999.0,  999.0,   10.0,  999.0,  999.0,  999.0,  999.0,  999.0,  999.0,   10.5,  999.0,    6.0,  999.0,  999.0,  999.0,    3.7,  999.0,    2.7,    2.1,  999.0,  999.0,  999.0,  999.0,  999.0,  999.0,    0.8,    1.0,    0.4,  999.0
